Wetterdaten: Sonntag, 29.12.2013
Datum Zeit Temp. Aussen +5cm Feuchte Auss Luftdruck Regen Sonnenschein Regendauer UV Solar Windben
29.12.2013 00:00 6,3 C 5,0 C 96 % 1005,8 hPa 0,0 l/m 0 min 0 min 0,0 UV-I 0 W/m 0,0 km/h (0 Bft)
29.12.2013 00:02 6,3 C 5,0 C 96 % 1005,9 hPa 0,0 l/m 0 min 0 min 0,0 UV-I 0 W/m 5,1 km/h (1 Bft)
29.12.2013 00:04 6,3 C 5,0 C 96 % 1005,8 hPa 0,0 l/m 0 min 0 min 0,0 UV-I 0 W/m 7,7 km/h (2 Bft)
29.12.2013 00:06 6,3 C 5,0 C 96 % 1005,8 hPa 0,0 l/m 0 min 0 min 0,0 UV-I 0 W/m 5,1 km/h (1 Bft)
29.12.2013 00:08 6,3 C 5,0 C 96 % 1005,8 hPa 0,0 l/m 0 min 0 min 0,0 UV-I 0 W/m 7,7 km/h (2 Bft)
29.12.2013 00:10 6,3 C 5,0 C 96 % 1005,9 hPa 0,0 l/m 0 min 0 min 0,0 UV-I 0 W/m 5,1 km/h (1 Bft)
29.12.2013 00:12 6,2 C 5,0 C 95 % 1005,9 hPa 0,0 l/m 0 min 0 min 0,0 UV-I 0 W/m 0,0 km/h (0 Bft)
29.12.2013 00:14 6,2 C 5,0 C 95 % 1005,9 hPa 0,0 l/m 0 min 0 min 0,0 UV-I 0 W/m 0,0 km/h (0 Bft)
29.12.2013 00:16 6,2 C 5,0 C 95 % 1005,9 hPa 0,0 l/m 0 min 0 min 0,0 UV-I 0 W/m 0,0 km/h (0 Bft)
29.12.2013 00:18 6,2 C 5,0 C 95 % 1005,9 hPa 0,0 l/m 0 min 0 min 0,0 UV-I 0 W/m 0,0 km/h (0 Bft)
29.12.2013 00:20 6,2 C 5,0 C 95 % 1005,9 hPa 0,0 l/m 0 min 0 min 0,0 UV-I 0 W/m 12,9 km/h (3 Bft)
29.12.2013 00:22 6,2 C 5,0 C 95 % 1005,9 hPa 0,0 l/m 0 min 0 min 0,0 UV-I 0 W/m 2,6 km/h (1 Bft)
29.12.2013 00:24 6,2 C 5,0 C 95 % 1005,9 hPa 0,0 l/m 0 min 0 min 0,0 UV-I 0 W/m 0,0 km/h (0 Bft)
29.12.2013 00:26 6,2 C 5,0 C 95 % 1006,0 hPa 0,0 l/m 0 min 0 min 0,0 UV-I 0 W/m 0,0 km/h (0 Bft)
29.12.2013 00:28 6,2 C 5,0 C 95 % 1006,0 hPa 0,0 l/m 0 min 0 min 0,0 UV-I 0 W/m 10,3 km/h (2 Bft)
29.12.2013 00:30 6,2 C 5,0 C 95 % 1006,0 hPa 0,0 l/m 0 min 0 min 0,0 UV-I 0 W/m 7,7 km/h (2 Bft)
29.12.2013 00:32 6,2 C 5,0 C 95 % 1006,0 hPa 0,0 l/m 0 min 0 min 0,0 UV-I 0 W/m 0,0 km/h (0 Bft)
29.12.2013 00:34 6,2 C 5,0 C 95 % 1006,0 hPa 0,0 l/m 0 min 0 min 0,0 UV-I 0 W/m 7,7 km/h (2 Bft)
29.12.2013 00:36 6,2 C 5,0 C 95 % 1006,0 hPa 0,0 l/m 0 min 0 min 0,0 UV-I 0 W/m 2,6 km/h (1 Bft)
29.12.2013 00:38 6,2 C 5,0 C 95 % 1006,1 hPa 0,0 l/m 0 min 0 min 0,0 UV-I 0 W/m 0,0 km/h (0 Bft)
29.12.2013 00:40 6,2 C 5,0 C 95 % 1006,2 hPa 0,0 l/m 0 min 0 min 0,0 UV-I 0 W/m 0,0 km/h (0 Bft)
29.12.2013 00:42 6,2 C 5,0 C 95 % 1006,2 hPa 0,0 l/m 0 min 0 min 0,0 UV-I 0 W/m 7,7 km/h (2 Bft)
29.12.2013 00:44 6,2 C 5,0 C 95 % 1006,2 hPa 0,0 l/m 0 min 0 min 0,0 UV-I 0 W/m 2,6 km/h (1 Bft)
29.12.2013 00:46 6,2 C 5,0 C 95 % 1006,2 hPa 0,0 l/m 0 min 0 min 0,0 UV-I 0 W/m 0,0 km/h (0 Bft)
29.12.2013 00:48 6,2 C 5,0 C 95 % 1006,2 hPa 0,0 l/m 0 min 0 min 0,0 UV-I 0 W/m 10,3 km/h (2 Bft)
29.12.2013 00:50 6,2 C 5,0 C 95 % 1006,2 hPa 0,0 l/m 0 min 0 min 0,0 UV-I 0 W/m 2,6 km/h (1 Bft)
29.12.2013 00:52 6,2 C 5,0 C 95 % 1006,3 hPa 0,0 l/m 0 min 0 min 0,0 UV-I 0 W/m 5,1 km/h (1 Bft)
29.12.2013 00:54 6,2 C 5,0 C 95 % 1006,3 hPa 0,0 l/m 0 min 0 min 0,0 UV-I 0 W/m 0,0 km/h (0 Bft)
29.12.2013 00:56 6,1 C 5,0 C 95 % 1006,4 hPa 0,0 l/m 0 min 0 min 0,0 UV-I 0 W/m 2,6 km/h (1 Bft)
29.12.2013 00:58 6,1 C 4,4 C 95 % 1006,4 hPa 0,0 l/m 0 min 0 min 0,0 UV-I 0 W/m 5,1 km/h (1 Bft)
29.12.2013 01:00 6,1 C 5,0 C 95 % 1006,4 hPa 0,0 l/m 0 min 0 min 0,0 UV-I 0 W/m 10,3 km/h (2 Bft)
29.12.2013 01:02 6,1 C 5,0 C 95 % 1006,3 hPa 0,0 l/m 0 min 0 min 0,0 UV-I 0 W/m 12,9 km/h (3 Bft)
29.12.2013 01:04 6,1 C 4,4 C 95 % 1006,3 hPa 0,0 l/m 0 min 0 min 0,0 UV-I 0 W/m 10,3 km/h (2 Bft)
29.12.2013 01:06 6,1 C 4,4 C 95 % 1006,4 hPa 0,0 l/m 0 min 0 min 0,0 UV-I 0 W/m 7,7 km/h (2 Bft)
29.12.2013 01:08 6,1 C 4,4 C 95 % 1006,4 hPa 0,0 l/m 0 min 0 min 0,0 UV-I 0 W/m 5,1 km/h (1 Bft)
29.12.2013 01:10 6,1 C 4,4 C 95 % 1006,4 hPa 0,0 l/m 0 min 0 min 0,0 UV-I 0 W/m 7,7 km/h (2 Bft)
29.12.2013 01:12 6,1 C 4,4 C 95 % 1006,4 hPa 0,0 l/m 0 min 0 min 0,0 UV-I 0 W/m 2,6 km/h (1 Bft)
29.12.2013 01:14 6,1 C 4,4 C 95 % 1006,4 hPa 0,0 l/m 0 min 0 min 0,0 UV-I 0 W/m 10,3 km/h (2 Bft)
29.12.2013 01:16 6,1 C 5,0 C 95 % 1006,5 hPa 0,0 l/m 0 min 0 min 0,0 UV-I 0 W/m 12,9 km/h (3 Bft)
29.12.2013 01:18 6,1 C 4,4 C 95 % 1006,6 hPa 0,0 l/m 0 min 0 min 0,0 UV-I 0 W/m 5,1 km/h (1 Bft)
29.12.2013 01:20 6,1 C 5,0 C 95 % 1006,6 hPa 0,0 l/m 0 min 0 min 0,0 UV-I 0 W/m 5,1 km/h (1 Bft)
29.12.2013 01:22 6,1 C 4,4 C 95 % 1006,6 hPa 0,0 l/m 0 min 0 min 0,0 UV-I 0 W/m 10,3 km/h (2 Bft)
29.12.2013 01:24 6,1 C 5,0 C 95 % 1006,6 hPa 0,0 l/m 0 min 0 min 0,0 UV-I 0 W/m 7,7 km/h (2 Bft)
29.12.2013 01:26 6,1 C 4,4 C 94 % 1006,6 hPa 0,0 l/m 0 min 0 min 0,0 UV-I 0 W/m 12,9 km/h (3 Bft)
29.12.2013 01:28 6,1 C 4,4 C 94 % 1006,6 hPa 0,0 l/m 0 min 0 min 0,0 UV-I 0 W/m 15,4 km/h (3 Bft)
29.12.2013 01:30 6,1 C 4,4 C 94 % 1006,6 hPa 0,0 l/m 0 min 0 min 0,0 UV-I 0 W/m 5,1 km/h (1 Bft)
29.12.2013 01:32 6,1 C 4,4 C 94 % 1006,7 hPa 0,0 l/m 0 min 0 min 0,0 UV-I 0 W/m 12,9 km/h (3 Bft)
29.12.2013 01:34 6,0 C 4,4 C 94 % 1006,7 hPa 0,0 l/m 0 min 0 min 0,0 UV-I 0 W/m 5,1 km/h (1 Bft)
29.12.2013 01:36 6,1 C 4,4 C 94 % 1006,7 hPa 0,0 l/m 0 min 0 min 0,0 UV-I 0 W/m 10,3 km/h (2 Bft)
29.12.2013 01:38 6,0 C 4,4 C 94 % 1006,8 hPa 0,0 l/m 0 min 0 min 0,0 UV-I 0 W/m 7,7 km/h (2 Bft)
29.12.2013 01:40 6,0 C 4,4 C 94 % 1006,8 hPa 0,0 l/m 0 min 0 min 0,0 UV-I 0 W/m 15,4 km/h (3 Bft)
29.12.2013 01:42 6,0 C 4,4 C 94 % 1006,8 hPa 0,0 l/m 0 min 0 min 0,0 UV-I 0 W/m 7,7 km/h (2 Bft)
29.12.2013 01:44 6,0 C 4,4 C 94 % 1006,8 hPa 0,0 l/m 0 min 0 min 0,0 UV-I 0 W/m 5,1 km/h (1 Bft)
29.12.2013 01:46 6,0 C 4,4 C 94 % 1006,8 hPa 0,0 l/m 0 min 0 min 0,0 UV-I 0 W/m 15,4 km/h (3 Bft)
29.12.2013 01:48 6,0 C 4,4 C 94 % 1006,9 hPa 0,0 l/m 0 min 0 min 0,0 UV-I 0 W/m 2,6 km/h (1 Bft)
29.12.2013 01:50 6,0 C 4,4 C 94 % 1006,9 hPa 0,0 l/m 0 min 0 min 0,0 UV-I 0 W/m 10,3 km/h (2 Bft)
29.12.2013 01:52 6,0 C 4,4 C 94 % 1006,8 hPa 0,0 l/m 0 min 0 min 0,0 UV-I 0 W/m 5,1 km/h (1 Bft)
29.12.2013 01:54 6,0 C 4,4 C 94 % 1006,8 hPa 0,0 l/m 0 min 0 min 0,0 UV-I 0 W/m 10,3 km/h (2 Bft)
29.12.2013 01:56 6,0 C 4,4 C 94 % 1006,9 hPa 0,0 l/m 0 min 0 min 0,0 UV-I 0 W/m 7,7 km/h (2 Bft)
29.12.2013 01:58 6,0 C 4,4 C 94 % 1006,9 hPa 0,0 l/m 0 min 0 min 0,0 UV-I 0 W/m 5,1 km/h (1 Bft)
29.12.2013 02:00 5,9 C 4,4 C 94 % 1007,0 hPa 0,0 l/m 0 min 0 min 0,0 UV-I 0 W/m 10,3 km/h (2 Bft)
29.12.2013 02:02 5,9 C 4,4 C 94 % 1007,0 hPa 0,0 l/m 0 min 0 min 0,0 UV-I 0 W/m 7,7 km/h (2 Bft)
29.12.2013 02:04 5,9 C 4,4 C 94 % 1007,0 hPa 0,0 l/m 0 min 0 min 0,0 UV-I 0 W/m 2,6 km/h (1 Bft)
29.12.2013 02:06 5,9 C 4,4 C 93 % 1007,0 hPa 0,0 l/m 0 min 0 min 0,0 UV-I 0 W/m 10,3 km/h (2 Bft)
29.12.2013 02:08 5,9 C 4,4 C 93 % 1007,0 hPa 0,0 l/m 0 min 0 min 0,0 UV-I 0 W/m 10,3 km/h (2 Bft)
29.12.2013 02:10 5,9 C 4,4 C 93 % 1007,0 hPa 0,0 l/m 0 min 0 min 0,0 UV-I 0 W/m 5,1 km/h (1 Bft)
29.12.2013 02:12 5,9 C 4,4 C 93 % 1006,9 hPa 0,0 l/m 0 min 0 min 0,0 UV-I 0 W/m 2,6 km/h (1 Bft)
29.12.2013 02:14 5,9 C 4,4 C 93 % 1007,0 hPa 0,0 l/m 0 min 0 min 0,0 UV-I 0 W/m 18,0 km/h (3 Bft)
29.12.2013 02:16 5,9 C 4,4 C 93 % 1007,0 hPa 0,0 l/m 0 min 0 min 0,0 UV-I 0 W/m 12,9 km/h (3 Bft)
29.12.2013 02:18 5,9 C 4,4 C 93 % 1007,0 hPa 0,0 l/m 0 min 0 min 0,0 UV-I 0 W/m 15,4 km/h (3 Bft)
29.12.2013 02:20 5,9 C 4,4 C 93 % 1007,0 hPa 0,0 l/m 0 min 0 min 0,0 UV-I 0 W/m 7,7 km/h (2 Bft)
29.12.2013 02:22 5,9 C 4,4 C 93 % 1007,0 hPa 0,0 l/m 0 min 0 min 0,0 UV-I 0 W/m 7,7 km/h (2 Bft)
29.12.2013 02:24 5,9 C 4,4 C 93 % 1007,1 hPa 0,0 l/m 0 min 0 min 0,0 UV-I 0 W/m 7,7 km/h (2 Bft)
29.12.2013 02:26 5,9 C 4,4 C 93 % 1007,1 hPa 0,0 l/m 0 min 0 min 0,0 UV-I 0 W/m 15,4 km/h (3 Bft)
29.12.2013 02:28 5,9 C 4,4 C 93 % 1007,1 hPa 0,0 l/m 0 min 0 min 0,0 UV-I 0 W/m 0,0 km/h (0 Bft)
29.12.2013 02:30 5,9 C 4,4 C 93 % 1007,1 hPa 0,0 l/m 0 min 0 min 0,0 UV-I 0 W/m 10,3 km/h (2 Bft)
29.12.2013 02:32 5,9 C 4,4 C 93 % 1007,2 hPa 0,0 l/m 0 min 0 min 0,0 UV-I 0 W/m 10,3 km/h (2 Bft)
29.12.2013 02:34 5,8 C 4,4 C 93 % 1007,2 hPa 0,0 l/m 0 min 0 min 0,0 UV-I 0 W/m 15,4 km/h (3 Bft)
29.12.2013 02:36 5,8 C 4,4 C 93 % 1007,3 hPa 0,0 l/m 0 min 0 min 0,0 UV-I 0 W/m 15,4 km/h (3 Bft)
29.12.2013 02:38 5,8 C 4,4 C 93 % 1007,4 hPa 0,0 l/m 0 min 0 min 0,0 UV-I 0 W/m 10,3 km/h (2 Bft)
29.12.2013 02:40 5,8 C 4,4 C 93 % 1007,4 hPa 0,0 l/m 0 min 0 min 0,0 UV-I 0 W/m 7,7 km/h (2 Bft)
29.12.2013 02:42 5,8 C 4,4 C 92 % 1007,4 hPa 0,0 l/m 0 min 0 min 0,0 UV-I 0 W/m 7,7 km/h (2 Bft)
29.12.2013 02:44 5,8 C 4,4 C 92 % 1007,5 hPa 0,0 l/m 0 min 0 min 0,0 UV-I 0 W/m 5,1 km/h (1 Bft)
29.12.2013 02:46 5,8 C 3,9 C 92 % 1007,5 hPa 0,0 l/m 0 min 0 min 0,0 UV-I 0 W/m 2,6 km/h (1 Bft)
29.12.2013 02:48 5,8 C 3,9 C 92 % 1007,5 hPa 0,0 l/m 0 min 0 min 0,0 UV-I 0 W/m 10,3 km/h (2 Bft)
29.12.2013 02:50 5,7 C 3,9 C 92 % 1007,6 hPa 0,0 l/m 0 min 0 min 0,0 UV-I 0 W/m 7,7 km/h (2 Bft)
29.12.2013 02:52 5,7 C 3,9 C 92 % 1007,6 hPa 0,0 l/m 0 min 0 min 0,0 UV-I 0 W/m 7,7 km/h (2 Bft)
29.12.2013 02:54 5,7 C 3,9 C 92 % 1007,6 hPa 0,0 l/m 0 min 0 min 0,0 UV-I 0 W/m 2,6 km/h (1 Bft)
29.12.2013 02:56 5,7 C 3,9 C 92 % 1007,6 hPa 0,0 l/m 0 min 0 min 0,0 UV-I 0 W/m 7,7 km/h (2 Bft)
29.12.2013 02:58 5,7 C 3,9 C 92 % 1007,6 hPa 0,0 l/m 0 min 0 min 0,0 UV-I 0 W/m 5,1 km/h (1 Bft)
29.12.2013 03:00 5,7 C 3,9 C 92 % 1007,6 hPa 0,0 l/m 0 min 0 min 0,0 UV-I 0 W/m 5,1 km/h (1 Bft)
29.12.2013 03:02 5,6 C 3,9 C 92 % 1007,7 hPa 0,0 l/m 0 min 0 min 0,0 UV-I 0 W/m 12,9 km/h (3 Bft)
29.12.2013 03:04 5,6 C 3,9 C 92 % 1007,7 hPa 0,0 l/m 0 min 0 min 0,0 UV-I 0 W/m 10,3 km/h (2 Bft)
29.12.2013 03:06 5,6 C 3,9 C 92 % 1007,7 hPa 0,0 l/m 0 min 0 min 0,0 UV-I 0 W/m 7,7 km/h (2 Bft)
29.12.2013 03:08 5,6 C 3,9 C 92 % 1007,9 hPa 0,0 l/m 0 min 0 min 0,0 UV-I 0 W/m 5,1 km/h (1 Bft)
29.12.2013 03:10 5,6 C 3,9 C 92 % 1007,9 hPa 0,0 l/m 0 min 0 min 0,0 UV-I 0 W/m 7,7 km/h (2 Bft)
29.12.2013 03:12 5,6 C 4,4 C 92 % 1007,9 hPa 0,0 l/m 0 min 0 min 0,0 UV-I 0 W/m 5,1 km/h (1 Bft)
29.12.2013 03:14 5,6 C 4,4 C 92 % 1008,0 hPa 0,0 l/m 0 min 0 min 0,0 UV-I 0 W/m 10,3 km/h (2 Bft)
29.12.2013 03:16 5,6 C 4,4 C 92 % 1008,0 hPa 0,0 l/m 0 min 0 min 0,0 UV-I 0 W/m 15,4 km/h (3 Bft)
29.12.2013 03:18 5,6 C 4,4 C 92 % 1008,0 hPa 0,0 l/m 0 min 0 min 0,0 UV-I 0 W/m 15,4 km/h (3 Bft)
29.12.2013 03:20 5,6 C 4,4 C 92 % 1008,0 hPa 0,0 l/m 0 min 0 min 0,0 UV-I 0 W/m 30,9 km/h (5 Bft)
29.12.2013 03:22 5,7 C 4,4 C 92 % 1008,0 hPa 0,0 l/m 0 min 0 min 0,0 UV-I 0 W/m 12,9 km/h (3 Bft)
29.12.2013 03:24 5,7 C 4,4 C 92 % 1008,0 hPa 0,0 l/m 0 min 0 min 0,0 UV-I 0 W/m 18,0 km/h (3 Bft)
29.12.2013 03:26 5,7 C 4,4 C 92 % 1008,0 hPa 0,0 l/m 0 min 0 min 0,0 UV-I 0 W/m 10,3 km/h (2 Bft)
29.12.2013 03:28 5,7 C 4,4 C 91 % 1008,0 hPa 0,0 l/m 0 min 0 min 0,0 UV-I 0 W/m 12,9 km/h (3 Bft)
29.12.2013 03:30 5,8 C 4,4 C 91 % 1008,2 hPa 0,0 l/m 0 min 0 min 0,0 UV-I 0 W/m 15,4 km/h (3 Bft)
29.12.2013 03:32 5,8 C 4,4 C 91 % 1008,2 hPa 0,0 l/m 0 min 0 min 0,0 UV-I 0 W/m 10,3 km/h (2 Bft)
29.12.2013 03:34 5,8 C 4,4 C 91 % 1008,2 hPa 0,0 l/m 0 min 0 min 0,0 UV-I 0 W/m 12,9 km/h (3 Bft)
29.12.2013 03:36 5,8 C 4,4 C 91 % 1008,3 hPa 0,0 l/m 0 min 0 min 0,0 UV-I 0 W/m 18,0 km/h (3 Bft)
29.12.2013 03:38 5,8 C 4,4 C 91 % 1008,3 hPa 0,0 l/m 0 min 0 min 0,0 UV-I 0 W/m 18,0 km/h (3 Bft)
29.12.2013 03:40 5,8 C 4,4 C 91 % 1008,2 hPa 0,0 l/m 0 min 0 min 0,0 UV-I 0 W/m 7,7 km/h (2 Bft)
29.12.2013 03:42 5,9 C 4,4 C 91 % 1008,3 hPa 0,0 l/m 0 min 0 min 0,0 UV-I 0 W/m 23,2 km/h (4 Bft)
29.12.2013 03:44 5,9 C 4,4 C 91 % 1008,3 hPa 0,0 l/m 0 min 0 min 0,0 UV-I 0 W/m 23,2 km/h (4 Bft)
29.12.2013 03:46 5,9 C 4,4 C 90 % 1008,3 hPa 0,0 l/m 0 min 0 min 0,0 UV-I 0 W/m 7,7 km/h (2 Bft)
29.12.2013 03:48 5,9 C 4,4 C 90 % 1008,3 hPa 0,0 l/m 0 min 0 min 0,0 UV-I 0 W/m 7,7 km/h (2 Bft)
29.12.2013 03:50 5,9 C 4,4 C 90 % 1008,4 hPa 0,0 l/m 0 min 0 min 0,0 UV-I 0 W/m 5,1 km/h (1 Bft)
29.12.2013 03:52 5,9 C 4,4 C 90 % 1008,4 hPa 0,0 l/m 0 min 0 min 0,0 UV-I 0 W/m 7,7 km/h (2 Bft)
29.12.2013 03:54 5,9 C 4,4 C 90 % 1008,4 hPa 0,0 l/m 0 min 0 min 0,0 UV-I 0 W/m 10,3 km/h (2 Bft)
29.12.2013 03:56 5,9 C 4,4 C 90 % 1008,3 hPa 0,0 l/m 0 min 0 min 0,0 UV-I 0 W/m 0,0 km/h (0 Bft)
29.12.2013 03:58 5,9 C 4,4 C 90 % 1008,4 hPa 0,0 l/m 0 min 0 min 0,0 UV-I 0 W/m 12,9 km/h (3 Bft)
29.12.2013 04:00 5,9 C 4,4 C 90 % 1008,4 hPa 0,0 l/m 0 min 0 min 0,0 UV-I 0 W/m 15,4 km/h (3 Bft)
29.12.2013 04:02 5,9 C 4,4 C 90 % 1008,4 hPa 0,0 l/m 0 min 0 min 0,0 UV-I 0 W/m 12,9 km/h (3 Bft)
29.12.2013 04:04 5,9 C 4,4 C 90 % 1008,4 hPa 0,0 l/m 0 min 0 min 0,0 UV-I 0 W/m 18,0 km/h (3 Bft)
29.12.2013 04:06 5,9 C 4,4 C 90 % 1008,4 hPa 0,0 l/m 0 min 0 min 0,0 UV-I 0 W/m 18,0 km/h (3 Bft)
29.12.2013 04:08 5,9 C 4,4 C 90 % 1008,5 hPa 0,0 l/m 0 min 2 min 0,0 UV-I 0 W/m 10,3 km/h (2 Bft)
29.12.2013 04:10 5,9 C 4,4 C 90 % 1008,5 hPa 0,0 l/m 0 min 2 min 0,0 UV-I 0 W/m 20,6 km/h (4 Bft)
29.12.2013 04:12 5,9 C 4,4 C 90 % 1008,4 hPa 0,0 l/m 0 min 2 min 0,0 UV-I 0 W/m 15,4 km/h (3 Bft)
29.12.2013 04:14 5,9 C 4,4 C 90 % 1008,4 hPa 0,0 l/m 0 min 2 min 0,0 UV-I 0 W/m 5,1 km/h (1 Bft)
29.12.2013 04:16 5,9 C 4,4 C 90 % 1008,4 hPa 0,0 l/m 0 min 0 min 0,0 UV-I 0 W/m 12,9 km/h (3 Bft)
29.12.2013 04:18 5,9 C 3,9 C 90 % 1008,4 hPa 0,0 l/m 0 min 0 min 0,0 UV-I 0 W/m 2,6 km/h (1 Bft)
29.12.2013 04:20 5,9 C 3,9 C 90 % 1008,5 hPa 0,0 l/m 0 min 0 min 0,0 UV-I 0 W/m 18,0 km/h (3 Bft)
29.12.2013 04:22 5,9 C 4,4 C 90 % 1008,5 hPa 0,0 l/m 0 min 2 min 0,0 UV-I 0 W/m 20,6 km/h (4 Bft)
29.12.2013 04:24 5,9 C 3,9 C 90 % 1008,5 hPa 0,0 l/m 0 min 0 min 0,0 UV-I 0 W/m 12,9 km/h (3 Bft)
29.12.2013 04:26 5,9 C 3,9 C 90 % 1008,5 hPa 0,0 l/m 0 min 0 min 0,0 UV-I 0 W/m 10,3 km/h (2 Bft)
29.12.2013 04:28 5,9 C 3,9 C 90 % 1008,5 hPa 0,0 l/m 0 min 0 min 0,0 UV-I 0 W/m 12,9 km/h (3 Bft)
29.12.2013 04:30 5,9 C 3,9 C 90 % 1008,5 hPa 0,0 l/m 0 min 0 min 0,0 UV-I 0 W/m 18,0 km/h (3 Bft)
29.12.2013 04:32 5,8 C 4,4 C 90 % 1008,5 hPa 0,0 l/m 0 min 0 min 0,0 UV-I 0 W/m 18,0 km/h (3 Bft)
29.12.2013 04:34 5,8 C 4,4 C 90 % 1008,6 hPa 0,0 l/m 0 min 0 min 0,0 UV-I 0 W/m 12,9 km/h (3 Bft)
29.12.2013 04:36 5,8 C 4,4 C 90 % 1008,6 hPa 0,0 l/m 0 min 0 min 0,0 UV-I 0 W/m 12,9 km/h (3 Bft)
29.12.2013 04:38 5,8 C 4,4 C 90 % 1008,6 hPa 0,0 l/m 0 min 0 min 0,0 UV-I 0 W/m 18,0 km/h (3 Bft)
29.12.2013 04:40 5,8 C 4,4 C 90 % 1008,6 hPa 0,0 l/m 0 min 0 min 0,0 UV-I 0 W/m 12,9 km/h (3 Bft)
29.12.2013 04:42 5,8 C 4,4 C 90 % 1008,6 hPa 0,0 l/m 0 min 0 min 0,0 UV-I 0 W/m 5,1 km/h (1 Bft)
29.12.2013 04:44 5,8 C 4,4 C 90 % 1008,6 hPa 0,0 l/m 0 min 0 min 0,0 UV-I 0 W/m 10,3 km/h (2 Bft)
29.12.2013 04:46 5,8 C 4,4 C 90 % 1008,7 hPa 0,0 l/m 0 min 0 min 0,0 UV-I 0 W/m 7,7 km/h (2 Bft)
29.12.2013 04:48 5,8 C 4,4 C 90 % 1008,7 hPa 0,0 l/m 0 min 0 min 0,0 UV-I 0 W/m 0,0 km/h (0 Bft)
29.12.2013 04:50 5,8 C 4,4 C 90 % 1008,7 hPa 0,0 l/m 0 min 0 min 0,0 UV-I 0 W/m 10,3 km/h (2 Bft)
29.12.2013 04:52 5,9 C 4,4 C 90 % 1008,7 hPa 0,0 l/m 0 min 0 min 0,0 UV-I 0 W/m 10,3 km/h (2 Bft)
29.12.2013 04:54 5,9 C 4,4 C 90 % 1008,7 hPa 0,0 l/m 0 min 0 min 0,0 UV-I 0 W/m 10,3 km/h (2 Bft)
29.12.2013 04:56 5,9 C 4,4 C 90 % 1008,6 hPa 0,0 l/m 0 min 0 min 0,0 UV-I 0 W/m 10,3 km/h (2 Bft)
29.12.2013 04:58 5,9 C 4,4 C 90 % 1008,8 hPa 0,0 l/m 0 min 2 min 0,0 UV-I 0 W/m 12,9 km/h (3 Bft)
29.12.2013 05:00 5,9 C 4,4 C 90 % 1008,7 hPa 0,0 l/m 0 min 2 min 0,0 UV-I 0 W/m 0,0 km/h (0 Bft)
29.12.2013 05:02 5,9 C 4,4 C 90 % 1008,8 hPa 0,0 l/m 0 min 0 min 0,0 UV-I 0 W/m 10,3 km/h (2 Bft)
29.12.2013 05:04 5,9 C 4,4 C 90 % 1008,7 hPa 0,0 l/m 0 min 0 min 0,0 UV-I 0 W/m 5,1 km/h (1 Bft)
29.12.2013 05:06 5,9 C 4,4 C 90 % 1008,7 hPa 0,0 l/m 0 min 0 min 0,0 UV-I 0 W/m 5,1 km/h (1 Bft)
29.12.2013 05:08 5,9 C 4,4 C 90 % 1008,8 hPa 0,0 l/m 0 min 0 min 0,0 UV-I 0 W/m 7,7 km/h (2 Bft)
29.12.2013 05:10 5,9 C 4,4 C 90 % 1008,8 hPa 0,0 l/m 0 min 0 min 0,0 UV-I 0 W/m 2,6 km/h (1 Bft)
29.12.2013 05:12 5,9 C 4,4 C 90 % 1008,7 hPa 0,0 l/m 0 min 0 min 0,0 UV-I 0 W/m 0,0 km/h (0 Bft)
29.12.2013 05:14 5,9 C 4,4 C 90 % 1008,7 hPa 0,0 l/m 0 min 0 min 0,0 UV-I 0 W/m 7,7 km/h (2 Bft)
29.12.2013 05:16 5,9 C 4,4 C 90 % 1008,8 hPa 0,0 l/m 0 min 0 min 0,0 UV-I 0 W/m 12,9 km/h (3 Bft)
29.12.2013 05:18 5,9 C 4,4 C 90 % 1008,8 hPa 0,0 l/m 0 min 0 min 0,0 UV-I 0 W/m 18,0 km/h (3 Bft)
29.12.2013 05:20 5,9 C 4,4 C 90 % 1008,8 hPa 0,0 l/m 0 min 0 min 0,0 UV-I 0 W/m 15,4 km/h (3 Bft)
29.12.2013 05:22 5,9 C 4,4 C 90 % 1008,9 hPa 0,0 l/m 0 min 2 min 0,0 UV-I 0 W/m 12,9 km/h (3 Bft)
29.12.2013 05:24 5,9 C 4,4 C 90 % 1008,8 hPa 0,0 l/m 0 min 0 min 0,0 UV-I 0 W/m 15,4 km/h (3 Bft)
29.12.2013 05:26 5,9 C 4,4 C 90 % 1008,9 hPa 0,0 l/m 0 min 0 min 0,0 UV-I 0 W/m 15,4 km/h (3 Bft)
29.12.2013 05:28 5,9 C 4,4 C 90 % 1008,9 hPa 0,0 l/m 0 min 0 min 0,0 UV-I 0 W/m 5,1 km/h (1 Bft)
29.12.2013 05:30 5,9 C 4,4 C 90 % 1008,8 hPa 0,0 l/m 0 min 0 min 0,0 UV-I 0 W/m 2,6 km/h (1 Bft)
29.12.2013 05:32 5,9 C 4,4 C 90 % 1008,9 hPa 0,0 l/m 0 min 0 min 0,0 UV-I 0 W/m 7,7 km/h (2 Bft)
29.12.2013 05:34 5,9 C 4,4 C 90 % 1008,9 hPa 0,0 l/m 0 min 2 min 0,0 UV-I 0 W/m 10,3 km/h (2 Bft)
29.12.2013 05:36 5,9 C 4,4 C 90 % 1008,9 hPa 0,0 l/m 0 min 2 min 0,0 UV-I 0 W/m 7,7 km/h (2 Bft)
29.12.2013 05:38 5,8 C 4,4 C 90 % 1008,9 hPa 0,0 l/m 0 min 0 min 0,0 UV-I 0 W/m 5,1 km/h (1 Bft)
29.12.2013 05:40 5,8 C 4,4 C 91 % 1008,9 hPa 0,0 l/m 0 min 2 min 0,0 UV-I 0 W/m 7,7 km/h (2 Bft)
29.12.2013 05:42 5,8 C 4,4 C 91 % 1009,0 hPa 0,0 l/m 0 min 0 min 0,0 UV-I 0 W/m 7,7 km/h (2 Bft)
29.12.2013 05:44 5,8 C 4,4 C 91 % 1009,0 hPa 0,0 l/m 0 min 0 min 0,0 UV-I 0 W/m 10,3 km/h (2 Bft)
29.12.2013 05:46 5,8 C 4,4 C 91 % 1009,0 hPa 0,0 l/m 0 min 0 min 0,0 UV-I 0 W/m 10,3 km/h (2 Bft)
29.12.2013 05:48 5,8 C 4,4 C 91 % 1009,0 hPa 0,0 l/m 0 min 2 min 0,0 UV-I 0 W/m 15,4 km/h (3 Bft)
29.12.2013 05:50 5,8 C 3,9 C 91 % 1009,1 hPa 0,0 l/m 0 min 2 min 0,0 UV-I 0 W/m 12,9 km/h (3 Bft)
29.12.2013 05:52 5,8 C 3,9 C 91 % 1009,1 hPa 0,2 l/m 0 min 2 min 0,0 UV-I 0 W/m 10,3 km/h (2 Bft)
29.12.2013 05:54 5,8 C 3,9 C 91 % 1009,1 hPa 0,0 l/m 0 min 2 min 0,0 UV-I 0 W/m 7,7 km/h (2 Bft)
29.12.2013 05:56 5,8 C 3,9 C 91 % 1009,2 hPa 0,0 l/m 0 min 2 min 0,0 UV-I 0 W/m 15,4 km/h (3 Bft)
29.12.2013 05:58 5,8 C 3,9 C 91 % 1009,2 hPa 0,2 l/m 0 min 2 min 0,0 UV-I 0 W/m 7,7 km/h (2 Bft)
29.12.2013 06:00 5,7 C 3,9 C 91 % 1009,2 hPa 0,0 l/m 0 min 2 min 0,0 UV-I 0 W/m 2,6 km/h (1 Bft)
29.12.2013 06:02 5,7 C 3,9 C 92 % 1009,3 hPa 0,0 l/m 0 min 2 min 0,0 UV-I 0 W/m 10,3 km/h (2 Bft)
29.12.2013 06:04 5,7 C 3,9 C 92 % 1009,3 hPa 0,0 l/m 0 min 2 min 0,0 UV-I 0 W/m 10,3 km/h (2 Bft)
29.12.2013 06:06 5,7 C 3,9 C 92 % 1009,3 hPa 0,0 l/m 0 min 2 min 0,0 UV-I 0 W/m 10,3 km/h (2 Bft)
29.12.2013 06:08 5,7 C 3,9 C 92 % 1009,2 hPa 0,0 l/m 0 min 2 min 0,0 UV-I 0 W/m 7,7 km/h (2 Bft)
29.12.2013 06:10 5,7 C 3,9 C 92 % 1009,3 hPa 0,0 l/m 0 min 2 min 0,0 UV-I 0 W/m 10,3 km/h (2 Bft)
29.12.2013 06:12 5,7 C 3,9 C 92 % 1009,3 hPa 0,0 l/m 0 min 2 min 0,0 UV-I 0 W/m 7,7 km/h (2 Bft)
29.12.2013 06:14 5,6 C 3,9 C 92 % 1009,3 hPa 0,0 l/m 0 min 0 min 0,0 UV-I 0 W/m 2,6 km/h (1 Bft)
29.12.2013 06:16 5,6 C 3,9 C 92 % 1009,4 hPa 0,0 l/m 0 min 2 min 0,0 UV-I 0 W/m 12,9 km/h (3 Bft)
29.12.2013 06:18 5,6 C 3,9 C 93 % 1009,5 hPa 0,0 l/m 0 min 0 min 0,0 UV-I 0 W/m 5,1 km/h (1 Bft)
29.12.2013 06:20 5,6 C 3,9 C 93 % 1009,5 hPa 0,0 l/m 0 min 0 min 0,0 UV-I 0 W/m 10,3 km/h (2 Bft)
29.12.2013 06:22 5,6 C 3,9 C 93 % 1009,4 hPa 0,0 l/m 0 min 0 min 0,0 UV-I 0 W/m 0,0 km/h (0 Bft)
29.12.2013 06:24 5,6 C 3,9 C 93 % 1009,4 hPa 0,0 l/m 0 min 0 min 0,0 UV-I 0 W/m 0,0 km/h (0 Bft)
29.12.2013 06:26 5,6 C 3,9 C 93 % 1009,5 hPa 0,0 l/m 0 min 0 min 0,0 UV-I 0 W/m 0,0 km/h (0 Bft)
29.12.2013 06:28 5,6 C 3,9 C 93 % 1009,5 hPa 0,0 l/m 0 min 0 min 0,0 UV-I 0 W/m 7,7 km/h (2 Bft)
29.12.2013 06:30 5,6 C 3,9 C 93 % 1009,5 hPa 0,0 l/m 0 min 0 min 0,0 UV-I 0 W/m 7,7 km/h (2 Bft)
29.12.2013 06:32 5,5 C 3,9 C 93 % 1009,6 hPa 0,0 l/m 0 min 0 min 0,0 UV-I 0 W/m 0,0 km/h (0 Bft)
29.12.2013 06:34 5,5 C 3,9 C 93 % 1009,6 hPa 0,0 l/m 0 min 0 min 0,0 UV-I 0 W/m 7,7 km/h (2 Bft)
29.12.2013 06:36 5,5 C 3,9 C 93 % 1009,7 hPa 0,0 l/m 0 min 0 min 0,0 UV-I 0 W/m 15,4 km/h (3 Bft)
29.12.2013 06:38 5,5 C 3,9 C 93 % 1009,7 hPa 0,0 l/m 0 min 2 min 0,0 UV-I 0 W/m 0,0 km/h (0 Bft)
29.12.2013 06:40 5,5 C 3,9 C 93 % 1009,7 hPa 0,0 l/m 0 min 2 min 0,0 UV-I 0 W/m 12,9 km/h (3 Bft)
29.12.2013 06:42 5,5 C 3,9 C 93 % 1009,7 hPa 0,0 l/m 0 min 2 min 0,0 UV-I 0 W/m 0,0 km/h (0 Bft)
29.12.2013 06:44 5,5 C 3,9 C 94 % 1009,7 hPa 0,2 l/m 0 min 0 min 0,0 UV-I 0 W/m 7,7 km/h (2 Bft)
29.12.2013 06:46 5,5 C 3,9 C 94 % 1009,8 hPa 0,0 l/m 0 min 0 min 0,0 UV-I 0 W/m 5,1 km/h (1 Bft)
29.12.2013 06:48 5,5 C 3,9 C 94 % 1009,8 hPa 0,0 l/m 0 min 0 min 0,0 UV-I 0 W/m 5,1 km/h (1 Bft)
29.12.2013 06:50 5,5 C 3,9 C 94 % 1009,9 hPa 0,0 l/m 0 min 0 min 0,0 UV-I 0 W/m 10,3 km/h (2 Bft)
29.12.2013 06:52 5,5 C 3,9 C 94 % 1009,8 hPa 0,0 l/m 0 min 0 min 0,0 UV-I 0 W/m 7,7 km/h (2 Bft)
29.12.2013 06:54 5,5 C 3,9 C 94 % 1009,9 hPa 0,0 l/m 0 min 0 min 0,0 UV-I 0 W/m 5,1 km/h (1 Bft)
29.12.2013 06:56 5,5 C 3,9 C 94 % 1009,9 hPa 0,0 l/m 0 min 0 min 0,0 UV-I 0 W/m 7,7 km/h (2 Bft)
29.12.2013 06:58 5,5 C 3,9 C 94 % 1009,9 hPa 0,0 l/m 0 min 0 min 0,0 UV-I 0 W/m 0,0 km/h (0 Bft)
29.12.2013 07:00 5,5 C 3,9 C 94 % 1010,0 hPa 0,0 l/m 0 min 0 min 0,0 UV-I 0 W/m 12,9 km/h (3 Bft)
29.12.2013 07:02 5,5 C 3,9 C 94 % 1009,9 hPa 0,0 l/m 0 min 0 min 0,0 UV-I 0 W/m 7,7 km/h (2 Bft)
29.12.2013 07:04 5,5 C 3,9 C 94 % 1010,0 hPa 0,0 l/m 0 min 0 min 0,0 UV-I 0 W/m 10,3 km/h (2 Bft)
29.12.2013 07:06 5,5 C 3,9 C 94 % 1010,0 hPa 0,0 l/m 0 min 0 min 0,0 UV-I 0 W/m 0,0 km/h (0 Bft)
29.12.2013 07:08 5,6 C 3,9 C 94 % 1010,1 hPa 0,0 l/m 0 min 0 min 0,0 UV-I 0 W/m 5,1 km/h (1 Bft)
29.12.2013 07:10 5,5 C 3,9 C 94 % 1010,1 hPa 0,0 l/m 0 min 0 min 0,0 UV-I 0 W/m 7,7 km/h (2 Bft)
29.12.2013 07:12 5,5 C 3,9 C 94 % 1010,1 hPa 0,0 l/m 0 min 0 min 0,0 UV-I 0 W/m 0,0 km/h (0 Bft)
29.12.2013 07:14 5,5 C 3,9 C 94 % 1010,2 hPa 0,0 l/m 0 min 0 min 0,0 UV-I 0 W/m 7,7 km/h (2 Bft)
29.12.2013 07:16 5,5 C 3,9 C 94 % 1010,2 hPa 0,0 l/m 0 min 0 min 0,0 UV-I 0 W/m 7,7 km/h (2 Bft)
29.12.2013 07:18 5,6 C 3,9 C 94 % 1010,1 hPa 0,0 l/m 0 min 0 min 0,0 UV-I 0 W/m 7,7 km/h (2 Bft)
29.12.2013 07:20 5,6 C 3,9 C 94 % 1010,2 hPa 0,0 l/m 0 min 0 min 0,0 UV-I 0 W/m 7,7 km/h (2 Bft)
29.12.2013 07:22 5,6 C 3,9 C 94 % 1010,2 hPa 0,0 l/m 0 min 0 min 0,0 UV-I 0 W/m 7,7 km/h (2 Bft)
29.12.2013 07:24 5,6 C 3,9 C 94 % 1010,3 hPa 0,0 l/m 0 min 0 min 0,0 UV-I 0 W/m 7,7 km/h (2 Bft)
29.12.2013 07:26 5,6 C 3,9 C 94 % 1010,3 hPa 0,0 l/m 0 min 0 min 0,0 UV-I 0 W/m 12,9 km/h (3 Bft)
29.12.2013 07:28 5,6 C 3,9 C 94 % 1010,3 hPa 0,0 l/m 0 min 2 min 0,0 UV-I 0 W/m 15,4 km/h (3 Bft)
29.12.2013 07:30 5,6 C 3,9 C 94 % 1010,5 hPa 0,0 l/m 0 min 2 min 0,0 UV-I 0 W/m 18,0 km/h (3 Bft)
29.12.2013 07:32 5,6 C 3,9 C 94 % 1010,4 hPa 0,0 l/m 0 min 2 min 0,0 UV-I 0 W/m 15,4 km/h (3 Bft)
29.12.2013 07:34 5,6 C 3,9 C 94 % 1010,5 hPa 0,0 l/m 0 min 2 min 0,0 UV-I 0 W/m 15,4 km/h (3 Bft)
29.12.2013 07:36 5,6 C 3,9 C 94 % 1010,5 hPa 0,0 l/m 0 min 2 min 0,0 UV-I 0 W/m 12,9 km/h (3 Bft)
29.12.2013 07:38 5,6 C 3,9 C 94 % 1010,5 hPa 0,0 l/m 0 min 2 min 0,0 UV-I 0 W/m 0,0 km/h (0 Bft)
29.12.2013 07:40 5,6 C 3,9 C 94 % 1010,5 hPa 0,0 l/m 0 min 2 min 0,0 UV-I 0 W/m 5,1 km/h (1 Bft)
29.12.2013 07:42 5,7 C 3,9 C 94 % 1010,5 hPa 0,0 l/m 0 min 0 min 0,0 UV-I 0 W/m 7,7 km/h (2 Bft)
29.12.2013 07:44 5,7 C 3,9 C 94 % 1010,5 hPa 0,0 l/m 0 min 0 min 0,0 UV-I 0 W/m 15,4 km/h (3 Bft)
29.12.2013 07:46 5,7 C 3,9 C 94 % 1010,6 hPa 0,0 l/m 0 min 2 min 0,0 UV-I 0 W/m 10,3 km/h (2 Bft)
29.12.2013 07:48 5,7 C 3,9 C 94 % 1010,6 hPa 0,0 l/m 0 min 2 min 0,0 UV-I 0 W/m 18,0 km/h (3 Bft)
29.12.2013 07:50 5,7 C 3,9 C 94 % 1010,7 hPa 0,0 l/m 0 min 2 min 0,0 UV-I 0 W/m 10,3 km/h (2 Bft)
29.12.2013 07:52 5,7 C 3,9 C 94 % 1010,7 hPa 0,2 l/m 0 min 2 min 0,0 UV-I 0 W/m 2,6 km/h (1 Bft)
29.12.2013 07:54 5,7 C 3,9 C 94 % 1010,7 hPa 0,0 l/m 0 min 2 min 0,0 UV-I 0 W/m 10,3 km/h (2 Bft)
29.12.2013 07:56 5,7 C 3,9 C 94 % 1010,9 hPa 0,2 l/m 0 min 2 min 0,0 UV-I 0 W/m 0,0 km/h (0 Bft)
29.12.2013 07:58 5,7 C 3,9 C 94 % 1010,9 hPa 0,0 l/m 0 min 2 min 0,0 UV-I 0 W/m 5,1 km/h (1 Bft)
29.12.2013 08:00 5,7 C 3,9 C 94 % 1010,9 hPa 0,0 l/m 0 min 2 min 0,0 UV-I 0 W/m 12,9 km/h (3 Bft)
29.12.2013 08:02 5,7 C 3,9 C 95 % 1010,9 hPa 0,0 l/m 0 min 2 min 0,0 UV-I 0 W/m 7,7 km/h (2 Bft)
29.12.2013 08:04 5,6 C 3,9 C 95 % 1010,9 hPa 0,0 l/m 0 min 0 min 0,0 UV-I 0 W/m 12,9 km/h (3 Bft)
29.12.2013 08:06 5,6 C 3,9 C 95 % 1010,9 hPa 0,0 l/m 0 min 2 min 0,0 UV-I 0 W/m 10,3 km/h (2 Bft)
29.12.2013 08:08 5,6 C 3,9 C 95 % 1010,9 hPa 0,0 l/m 0 min 0 min 0,0 UV-I 0 W/m 0,0 km/h (0 Bft)
29.12.2013 08:10 5,6 C 3,9 C 94 % 1011,0 hPa 0,0 l/m 0 min 0 min 0,0 UV-I 0 W/m 10,3 km/h (2 Bft)
29.12.2013 08:12 5,6 C 3,9 C 94 % 1011,0 hPa 0,0 l/m 0 min 2 min 0,0 UV-I 0 W/m 10,3 km/h (2 Bft)
29.12.2013 08:14 5,6 C 3,9 C 94 % 1011,0 hPa 0,0 l/m 0 min 0 min 0,0 UV-I 0 W/m 10,3 km/h (2 Bft)
29.12.2013 08:16 5,6 C 3,9 C 95 % 1011,0 hPa 0,0 l/m 0 min 0 min 0,0 UV-I 0 W/m 10,3 km/h (2 Bft)
29.12.2013 08:18 5,6 C 3,9 C 95 % 1011,4 hPa 0,0 l/m 0 min 0 min 0,0 UV-I 0 W/m 12,9 km/h (3 Bft)
29.12.2013 08:20 5,6 C 3,9 C 95 % 1011,3 hPa 0,0 l/m 0 min 0 min 0,0 UV-I 0 W/m 0,0 km/h (0 Bft)
29.12.2013 08:22 5,6 C 3,9 C 95 % 1011,3 hPa 0,0 l/m 0 min 0 min 0,0 UV-I 0 W/m 10,3 km/h (2 Bft)
29.12.2013 08:24 5,6 C 3,9 C 95 % 1011,3 hPa 0,0 l/m 0 min 0 min 0,0 UV-I 0 W/m 12,9 km/h (3 Bft)
29.12.2013 08:26 5,6 C 3,9 C 95 % 1011,4 hPa 0,0 l/m 0 min 2 min 0,0 UV-I 0 W/m 0,0 km/h (0 Bft)
29.12.2013 08:28 5,6 C 3,9 C 95 % 1011,5 hPa 0,0 l/m 0 min 2 min 0,0 UV-I 0 W/m 5,1 km/h (1 Bft)
29.12.2013 08:30 5,6 C 3,9 C 95 % 1011,5 hPa 0,0 l/m 0 min 2 min 0,0 UV-I 0 W/m 0,0 km/h (0 Bft)
29.12.2013 08:32 5,6 C 3,9 C 95 % 1011,6 hPa 0,0 l/m 0 min 2 min 0,0 UV-I 0 W/m 12,9 km/h (3 Bft)
29.12.2013 08:34 5,5 C 3,9 C 95 % 1011,6 hPa 0,2 l/m 0 min 2 min 0,0 UV-I 0 W/m 18,0 km/h (3 Bft)
29.12.2013 08:36 5,5 C 3,9 C 95 % 1011,7 hPa 0,0 l/m 0 min 2 min 0,0 UV-I 0 W/m 10,3 km/h (2 Bft)
29.12.2013 08:38 5,5 C 3,9 C 95 % 1011,7 hPa 0,0 l/m 0 min 2 min 0,0 UV-I 0 W/m 7,7 km/h (2 Bft)
29.12.2013 08:40 5,5 C 3,9 C 95 % 1011,8 hPa 0,0 l/m 0 min 2 min 0,0 UV-I 0 W/m 10,3 km/h (2 Bft)
29.12.2013 08:42 5,5 C 3,9 C 95 % 1011,8 hPa 0,0 l/m 0 min 0 min 0,0 UV-I 5 W/m 10,3 km/h (2 Bft)
29.12.2013 08:44 5,5 C 3,9 C 95 % 1011,9 hPa 0,0 l/m 0 min 2 min 0,0 UV-I 5 W/m 20,6 km/h (4 Bft)
29.12.2013 08:46 5,4 C 3,9 C 95 % 1012,1 hPa 0,0 l/m 0 min 2 min 0,0 UV-I 5 W/m 20,6 km/h (4 Bft)
29.12.2013 08:48 5,4 C 3,9 C 95 % 1012,0 hPa 0,0 l/m 0 min 2 min 0,0 UV-I 7 W/m 15,4 km/h (3 Bft)
29.12.2013 08:50 5,4 C 3,9 C 95 % 1011,9 hPa 0,0 l/m 0 min 2 min 0,0 UV-I 7 W/m 10,3 km/h (2 Bft)
29.12.2013 08:52 5,4 C 3,9 C 95 % 1012,0 hPa 0,0 l/m 0 min 0 min 0,0 UV-I 5 W/m 12,9 km/h (3 Bft)
29.12.2013 08:54 5,4 C 3,9 C 95 % 1012,0 hPa 0,0 l/m 0 min 2 min 0,0 UV-I 5 W/m 18,0 km/h (3 Bft)
29.12.2013 08:56 5,4 C 3,9 C 95 % 1012,2 hPa 0,0 l/m 0 min 2 min 0,0 UV-I 5 W/m 12,9 km/h (3 Bft)
29.12.2013 08:58 5,4 C 3,9 C 95 % 1012,2 hPa 0,0 l/m 0 min 0 min 0,0 UV-I 5 W/m 15,4 km/h (3 Bft)
29.12.2013 09:00 5,4 C 3,9 C 95 % 1012,2 hPa 0,0 l/m 0 min 0 min 0,0 UV-I 0 W/m 7,7 km/h (2 Bft)
29.12.2013 09:02 5,4 C 3,9 C 95 % 1012,3 hPa 0,0 l/m 0 min 0 min 0,0 UV-I 5 W/m 5,1 km/h (1 Bft)
29.12.2013 09:04 5,4 C 3,9 C 95 % 1012,3 hPa 0,0 l/m 0 min 0 min 0,0 UV-I 5 W/m 12,9 km/h (3 Bft)
29.12.2013 09:06 5,4 C 3,9 C 95 % 1012,4 hPa 0,0 l/m 0 min 0 min 0,0 UV-I 5 W/m 12,9 km/h (3 Bft)
29.12.2013 09:08 5,4 C 3,9 C 95 % 1012,3 hPa 0,0 l/m 0 min 0 min 0,0 UV-I 5 W/m 10,3 km/h (2 Bft)
29.12.2013 09:10 5,4 C 3,9 C 95 % 1012,4 hPa 0,0 l/m 0 min 0 min 0,0 UV-I 7 W/m 5,1 km/h (1 Bft)
29.12.2013 09:12 5,4 C 3,9 C 95 % 1012,5 hPa 0,0 l/m 0 min 2 min 0,0 UV-I 9 W/m 7,7 km/h (2 Bft)
29.12.2013 09:14 5,4 C 3,9 C 95 % 1012,6 hPa 0,0 l/m 0 min 0 min 0,0 UV-I 9 W/m 10,3 km/h (2 Bft)
29.12.2013 09:16 5,3 C 3,9 C 95 % 1012,6 hPa 0,0 l/m 0 min 0 min 0,0 UV-I 11 W/m 15,4 km/h (3 Bft)
29.12.2013 09:18 5,3 C 3,9 C 95 % 1012,6 hPa 0,0 l/m 0 min 0 min 0,0 UV-I 11 W/m 12,9 km/h (3 Bft)
29.12.2013 09:20 5,3 C 3,9 C 95 % 1012,8 hPa 0,0 l/m 0 min 0 min 0,0 UV-I 12 W/m 15,4 km/h (3 Bft)
29.12.2013 09:22 5,3 C 3,9 C 95 % 1012,8 hPa 0,0 l/m 0 min 0 min 0,0 UV-I 16 W/m 10,3 km/h (2 Bft)
29.12.2013 09:24 5,3 C 3,9 C 95 % 1012,8 hPa 0,0 l/m 0 min 0 min 0,0 UV-I 16 W/m 5,1 km/h (1 Bft)
29.12.2013 09:26 5,3 C 3,9 C 95 % 1012,9 hPa 0,0 l/m 0 min 0 min 0,0 UV-I 16 W/m 15,4 km/h (3 Bft)
29.12.2013 09:28 5,2 C 3,9 C 95 % 1012,9 hPa 0,0 l/m 0 min 0 min 0,0 UV-I 16 W/m 15,4 km/h (3 Bft)
29.12.2013 09:30 5,2 C 3,9 C 95 % 1012,9 hPa 0,0 l/m 0 min 0 min 0,0 UV-I 16 W/m 12,9 km/h (3 Bft)
29.12.2013 09:32 5,2 C 3,3 C 95 % 1012,9 hPa 0,0 l/m 0 min 0 min 0,0 UV-I 16 W/m 10,3 km/h (2 Bft)
29.12.2013 09:34 5,2 C 3,3 C 95 % 1013,0 hPa 0,0 l/m 0 min 0 min 0,0 UV-I 18 W/m 5,1 km/h (1 Bft)
29.12.2013 09:36 5,1 C 3,3 C 95 % 1013,0 hPa 0,0 l/m 0 min 0 min 0,0 UV-I 16 W/m 7,7 km/h (2 Bft)
29.12.2013 09:38 5,1 C 3,3 C 95 % 1013,0 hPa 0,0 l/m 0 min 0 min 0,0 UV-I 16 W/m 7,7 km/h (2 Bft)
29.12.2013 09:40 5,1 C 3,3 C 95 % 1013,1 hPa 0,0 l/m 0 min 0 min 0,0 UV-I 18 W/m 10,3 km/h (2 Bft)
29.12.2013 09:42 5,0 C 3,3 C 95 % 1013,0 hPa 0,0 l/m 0 min 0 min 0,0 UV-I 18 W/m 10,3 km/h (2 Bft)
29.12.2013 09:44 5,0 C 3,3 C 95 % 1013,1 hPa 0,0 l/m 0 min 0 min 0,0 UV-I 19 W/m 12,9 km/h (3 Bft)
29.12.2013 09:46 5,0 C 3,3 C 95 % 1013,1 hPa 0,0 l/m 0 min 0 min 0,0 UV-I 21 W/m 7,7 km/h (2 Bft)
29.12.2013 09:48 4,9 C 3,3 C 95 % 1013,2 hPa 0,0 l/m 0 min 0 min 0,0 UV-I 21 W/m 5,1 km/h (1 Bft)
29.12.2013 09:50 4,9 C 3,3 C 94 % 1013,2 hPa 0,0 l/m 0 min 0 min 0,0 UV-I 21 W/m 7,7 km/h (2 Bft)
29.12.2013 09:52 4,9 C 3,3 C 94 % 1013,2 hPa 0,0 l/m 0 min 0 min 0,0 UV-I 21 W/m 0,0 km/h (0 Bft)
29.12.2013 09:54 4,9 C 3,3 C 94 % 1013,2 hPa 0,0 l/m 0 min 0 min 0,0 UV-I 21 W/m 5,1 km/h (1 Bft)
29.12.2013 09:56 4,9 C 3,3 C 94 % 1013,4 hPa 0,0 l/m 0 min 0 min 0,0 UV-I 21 W/m 7,7 km/h (2 Bft)
29.12.2013 09:58 4,8 C 3,3 C 94 % 1013,4 hPa 0,0 l/m 0 min 0 min 0,0 UV-I 21 W/m 7,7 km/h (2 Bft)
29.12.2013 10:00 4,8 C 3,3 C 94 % 1013,5 hPa 0,0 l/m 0 min 0 min 0,0 UV-I 21 W/m 10,3 km/h (2 Bft)
29.12.2013 10:02 4,8 C 3,3 C 94 % 1013,5 hPa 0,0 l/m 0 min 0 min 0,0 UV-I 21 W/m 0,0 km/h (0 Bft)
29.12.2013 10:04 4,8 C 3,3 C 94 % 1013,5 hPa 0,0 l/m 0 min 0 min 0,0 UV-I 21 W/m 7,7 km/h (2 Bft)
29.12.2013 10:06 4,8 C 3,3 C 94 % 1013,5 hPa 0,0 l/m 0 min 0 min 0,0 UV-I 21 W/m 12,9 km/h (3 Bft)
29.12.2013 10:08 4,7 C 3,3 C 95 % 1013,5 hPa 0,0 l/m 0 min 0 min 0,0 UV-I 21 W/m 0,0 km/h (0 Bft)
29.12.2013 10:10 4,7 C 3,3 C 95 % 1013,5 hPa 0,0 l/m 0 min 0 min 0,0 UV-I 26 W/m 5,1 km/h (1 Bft)
29.12.2013 10:12 4,7 C 3,3 C 95 % 1013,6 hPa 0,0 l/m 0 min 0 min 0,0 UV-I 32 W/m 5,1 km/h (1 Bft)
29.12.2013 10:14 4,7 C 3,3 C 95 % 1013,6 hPa 0,0 l/m 0 min 0 min 0,0 UV-I 32 W/m 10,3 km/h (2 Bft)
29.12.2013 10:16 4,7 C 3,3 C 95 % 1013,8 hPa 0,0 l/m 0 min 0 min 0,0 UV-I 44 W/m 5,1 km/h (1 Bft)
29.12.2013 10:18 4,7 C 3,3 C 95 % 1013,9 hPa 0,0 l/m 0 min 0 min 0,0 UV-I 74 W/m 10,3 km/h (2 Bft)
29.12.2013 10:20 4,6 C 3,3 C 95 % 1013,9 hPa 0,0 l/m 0 min 0 min 0,0 UV-I 35 W/m 7,7 km/h (2 Bft)
29.12.2013 10:22 4,6 C 3,3 C 95 % 1014,0 hPa 0,0 l/m 0 min 0 min 0,0 UV-I 77 W/m 0,0 km/h (0 Bft)
29.12.2013 10:24 4,6 C 3,3 C 95 % 1014,0 hPa 0,0 l/m 0 min 0 min 0,0 UV-I 90 W/m 0,0 km/h (0 Bft)
29.12.2013 10:26 4,6 C 3,3 C 95 % 1014,0 hPa 0,0 l/m 2 min 0 min 0,0 UV-I 105 W/m 10,3 km/h (2 Bft)
29.12.2013 10:28 4,6 C 3,3 C 95 % 1014,1 hPa 0,0 l/m 2 min 0 min 0,0 UV-I 109 W/m 0,0 km/h (0 Bft)
29.12.2013 10:30 4,7 C 3,3 C 95 % 1014,1 hPa 0,0 l/m 2 min 0 min 0,0 UV-I 111 W/m 0,0 km/h (0 Bft)
29.12.2013 10:32 4,7 C 3,3 C 95 % 1014,2 hPa 0,0 l/m 2 min 0 min 0,0 UV-I 114 W/m 5,1 km/h (1 Bft)
29.12.2013 10:34 4,7 C 3,3 C 95 % 1014,2 hPa 0,0 l/m 2 min 0 min 0,0 UV-I 116 W/m 12,9 km/h (3 Bft)
29.12.2013 10:36 4,7 C 3,3 C 95 % 1014,2 hPa 0,0 l/m 2 min 0 min 0,0 UV-I 118 W/m 7,7 km/h (2 Bft)
29.12.2013 10:38 4,7 C 3,3 C 95 % 1014,3 hPa 0,0 l/m 2 min 0 min 0,0 UV-I 121 W/m 2,6 km/h (1 Bft)
29.12.2013 10:40 4,7 C 3,3 C 95 % 1014,3 hPa 0,0 l/m 2 min 0 min 0,0 UV-I 123 W/m 0,0 km/h (0 Bft)
29.12.2013 10:42 4,7 C 3,3 C 95 % 1014,4 hPa 0,0 l/m 2 min 0 min 0,0 UV-I 127 W/m 5,1 km/h (1 Bft)
29.12.2013 10:44 4,8 C 3,3 C 95 % 1014,4 hPa 0,0 l/m 2 min 0 min 0,0 UV-I 130 W/m 10,3 km/h (2 Bft)
29.12.2013 10:46 4,8 C 3,3 C 95 % 1014,5 hPa 0,0 l/m 2 min 0 min 0,0 UV-I 132 W/m 7,7 km/h (2 Bft)
29.12.2013 10:48 4,8 C 3,3 C 95 % 1014,5 hPa 0,0 l/m 2 min 0 min 0,0 UV-I 135 W/m 10,3 km/h (2 Bft)
29.12.2013 10:50 4,8 C 3,9 C 95 % 1014,5 hPa 0,0 l/m 2 min 0 min 0,0 UV-I 137 W/m 10,3 km/h (2 Bft)
29.12.2013 10:52 4,9 C 3,9 C 95 % 1014,5 hPa 0,0 l/m 2 min 0 min 0,0 UV-I 137 W/m 0,0 km/h (0 Bft)
29.12.2013 10:54 4,9 C 3,9 C 95 % 1014,5 hPa 0,0 l/m 2 min 0 min 0,0 UV-I 141 W/m 5,1 km/h (1 Bft)
29.12.2013 10:56 4,9 C 3,9 C 95 % 1014,6 hPa 0,0 l/m 2 min 0 min 0,0 UV-I 144 W/m 10,3 km/h (2 Bft)
29.12.2013 10:58 4,9 C 3,9 C 95 % 1014,5 hPa 0,0 l/m 2 min 0 min 0,0 UV-I 153 W/m 5,1 km/h (1 Bft)
29.12.2013 11:00 5,0 C 3,9 C 95 % 1014,5 hPa 0,0 l/m 2 min 0 min 0,0 UV-I 156 W/m 18,0 km/h (3 Bft)
29.12.2013 11:02 5,1 C 3,9 C 95 % 1014,6 hPa 0,0 l/m 2 min 0 min 0,0 UV-I 160 W/m 10,3 km/h (2 Bft)
29.12.2013 11:04 5,2 C 3,9 C 95 % 1014,5 hPa 0,0 l/m 2 min 0 min 0,0 UV-I 155 W/m 5,1 km/h (1 Bft)
29.12.2013 11:06 5,2 C 3,9 C 95 % 1014,6 hPa 0,0 l/m 2 min 0 min 0,0 UV-I 137 W/m 2,6 km/h (1 Bft)
29.12.2013 11:08 5,3 C 3,9 C 95 % 1014,6 hPa 0,0 l/m 2 min 0 min 0,0 UV-I 163 W/m 12,9 km/h (3 Bft)
29.12.2013 11:10 5,4 C 3,9 C 95 % 1014,6 hPa 0,0 l/m 0 min 0 min 0,0 UV-I 107 W/m 10,3 km/h (2 Bft)
29.12.2013 11:12 5,4 C 3,9 C 95 % 1014,6 hPa 0,0 l/m 2 min 0 min 0,0 UV-I 174 W/m 10,3 km/h (2 Bft)
29.12.2013 11:14 5,5 C 3,9 C 95 % 1014,7 hPa 0,0 l/m 2 min 0 min 0,0 UV-I 174 W/m 12,9 km/h (3 Bft)
29.12.2013 11:16 5,6 C 3,9 C 95 % 1014,8 hPa 0,0 l/m 2 min 0 min 0,0 UV-I 174 W/m 15,4 km/h (3 Bft)
29.12.2013 11:18 5,6 C 3,9 C 95 % 1014,8 hPa 0,0 l/m 2 min 0 min 0,0 UV-I 155 W/m 10,3 km/h (2 Bft)
29.12.2013 11:20 5,6 C 3,9 C 94 % 1014,9 hPa 0,0 l/m 0 min 0 min 0,0 UV-I 130 W/m 10,3 km/h (2 Bft)
29.12.2013 11:22 5,7 C 3,9 C 94 % 1014,9 hPa 0,0 l/m 2 min 0 min 0,0 UV-I 149 W/m 2,6 km/h (1 Bft)
29.12.2013 11:24 5,7 C 3,9 C 94 % 1014,8 hPa 0,0 l/m 2 min 0 min 0,0 UV-I 181 W/m 23,2 km/h (4 Bft)
29.12.2013 11:26 5,7 C 3,9 C 94 % 1014,9 hPa 0,0 l/m 2 min 0 min 0,0 UV-I 192 W/m 10,3 km/h (2 Bft)
29.12.2013 11:28 5,7 C 3,9 C 94 % 1014,9 hPa 0,0 l/m 2 min 0 min 0,0 UV-I 202 W/m 12,9 km/h (3 Bft)
29.12.2013 11:30 5,7 C 3,9 C 93 % 1014,9 hPa 0,0 l/m 2 min 0 min 0,0 UV-I 221 W/m 15,4 km/h (3 Bft)
29.12.2013 11:32 5,8 C 4,4 C 93 % 1014,9 hPa 0,0 l/m 2 min 0 min 0,0 UV-I 246 W/m 12,9 km/h (3 Bft)
29.12.2013 11:34 5,9 C 4,4 C 93 % 1014,9 hPa 0,0 l/m 0 min 0 min 0,0 UV-I 134 W/m 15,4 km/h (3 Bft)
29.12.2013 11:36 5,9 C 4,4 C 93 % 1014,9 hPa 0,0 l/m 2 min 0 min 0,0 UV-I 209 W/m 7,7 km/h (2 Bft)
29.12.2013 11:38 5,9 C 4,4 C 93 % 1014,9 hPa 0,0 l/m 2 min 0 min 0,0 UV-I 146 W/m 2,6 km/h (1 Bft)
29.12.2013 11:40 6,1 C 4,4 C 92 % 1015,0 hPa 0,0 l/m 2 min 0 min 0,0 UV-I 265 W/m 7,7 km/h (2 Bft)
29.12.2013 11:42 6,1 C 4,4 C 92 % 1015,0 hPa 0,0 l/m 2 min 0 min 0,0 UV-I 165 W/m 12,9 km/h (3 Bft)
29.12.2013 11:44 6,1 C 4,4 C 92 % 1015,0 hPa 0,0 l/m 2 min 0 min 0,0 UV-I 183 W/m 2,6 km/h (1 Bft)
29.12.2013 11:46 6,1 C 4,4 C 92 % 1015,0 hPa 0,0 l/m 0 min 0 min 0,0 UV-I 134 W/m 15,4 km/h (3 Bft)
29.12.2013 11:48 6,1 C 4,4 C 92 % 1015,0 hPa 0,0 l/m 0 min 0 min 0,0 UV-I 144 W/m 20,6 km/h (4 Bft)
29.12.2013 11:50 6,0 C 4,4 C 92 % 1015,0 hPa 0,0 l/m 0 min 0 min 0,0 UV-I 109 W/m 10,3 km/h (2 Bft)
29.12.2013 11:52 6,0 C 4,4 C 92 % 1015,0 hPa 0,0 l/m 0 min 0 min 0,0 UV-I 86 W/m 15,4 km/h (3 Bft)
29.12.2013 11:54 6,0 C 4,4 C 92 % 1015,0 hPa 0,0 l/m 0 min 0 min 0,0 UV-I 79 W/m 7,7 km/h (2 Bft)
29.12.2013 11:56 6,0 C 4,4 C 92 % 1015,0 hPa 0,0 l/m 0 min 0 min 0,0 UV-I 88 W/m 15,4 km/h (3 Bft)
29.12.2013 11:58 5,9 C 4,4 C 91 % 1015,0 hPa 0,0 l/m 0 min 0 min 0,0 UV-I 74 W/m 12,9 km/h (3 Bft)
29.12.2013 12:00 5,8 C 4,4 C 91 % 1015,0 hPa 0,0 l/m 0 min 0 min 0,0 UV-I 102 W/m 7,7 km/h (2 Bft)
29.12.2013 12:02 5,8 C 4,4 C 91 % 1015,1 hPa 0,0 l/m 0 min 0 min 0,0 UV-I 98 W/m 10,3 km/h (2 Bft)
29.12.2013 12:04 5,8 C 4,4 C 92 % 1015,2 hPa 0,0 l/m 0 min 0 min 0,0 UV-I 67 W/m 15,4 km/h (3 Bft)
29.12.2013 12:06 5,8 C 4,4 C 92 % 1015,2 hPa 0,0 l/m 0 min 0 min 0,0 UV-I 67 W/m 12,9 km/h (3 Bft)
29.12.2013 12:08 5,7 C 4,4 C 92 % 1015,2 hPa 0,0 l/m 0 min 0 min 0,0 UV-I 72 W/m 10,3 km/h (2 Bft)
29.12.2013 12:10 5,7 C 4,4 C 92 % 1015,2 hPa 0,0 l/m 0 min 0 min 0,0 UV-I 120 W/m 7,7 km/h (2 Bft)
29.12.2013 12:12 5,6 C 4,4 C 92 % 1015,2 hPa 0,0 l/m 0 min 0 min 0,0 UV-I 104 W/m 10,3 km/h (2 Bft)
29.12.2013 12:14 5,7 C 4,4 C 92 % 1015,2 hPa 0,0 l/m 0 min 0 min 0,0 UV-I 105 W/m 2,6 km/h (1 Bft)
29.12.2013 12:16 5,7 C 4,4 C 92 % 1015,2 hPa 0,0 l/m 0 min 0 min 0,0 UV-I 95 W/m 18,0 km/h (3 Bft)
29.12.2013 12:18 5,7 C 4,4 C 92 % 1015,2 hPa 0,0 l/m 0 min 0 min 0,0 UV-I 74 W/m 18,0 km/h (3 Bft)
29.12.2013 12:20 5,7 C 4,4 C 92 % 1015,2 hPa 0,0 l/m 0 min 0 min 0,0 UV-I 69 W/m 10,3 km/h (2 Bft)
29.12.2013 12:22 5,8 C 4,4 C 92 % 1015,3 hPa 0,0 l/m 0 min 0 min 0,0 UV-I 70 W/m 15,4 km/h (3 Bft)
29.12.2013 12:24 5,8 C 4,4 C 92 % 1015,3 hPa 0,0 l/m 0 min 0 min 0,0 UV-I 72 W/m 10,3 km/h (2 Bft)
29.12.2013 12:26 5,8 C 4,4 C 92 % 1015,3 hPa 0,0 l/m 0 min 0 min 0,0 UV-I 95 W/m 10,3 km/h (2 Bft)
29.12.2013 12:28 5,8 C 4,4 C 92 % 1015,3 hPa 0,0 l/m 0 min 0 min 0,0 UV-I 93 W/m 5,1 km/h (1 Bft)
29.12.2013 12:30 5,8 C 5,0 C 92 % 1015,4 hPa 0,0 l/m 0 min 0 min 0,0 UV-I 86 W/m 5,1 km/h (1 Bft)
29.12.2013 12:32 5,9 C 5,0 C 92 % 1015,4 hPa 0,0 l/m 0 min 0 min 0,0 UV-I 83 W/m 15,4 km/h (3 Bft)
29.12.2013 12:34 5,9 C 4,4 C 92 % 1015,3 hPa 0,0 l/m 0 min 0 min 0,0 UV-I 72 W/m 10,3 km/h (2 Bft)
29.12.2013 12:36 5,9 C 4,4 C 92 % 1015,4 hPa 0,0 l/m 0 min 0 min 0,0 UV-I 70 W/m 10,3 km/h (2 Bft)
29.12.2013 12:38 5,9 C 4,4 C 92 % 1015,4 hPa 0,0 l/m 0 min 0 min 0,0 UV-I 67 W/m 7,7 km/h (2 Bft)
29.12.2013 12:40 5,9 C 4,4 C 92 % 1015,5 hPa 0,0 l/m 0 min 0 min 0,0 UV-I 62 W/m 15,4 km/h (3 Bft)
29.12.2013 12:42 5,9 C 4,4 C 92 % 1015,5 hPa 0,0 l/m 0 min 0 min 0,0 UV-I 70 W/m 10,3 km/h (2 Bft)
29.12.2013 12:44 5,9 C 4,4 C 91 % 1015,5 hPa 0,0 l/m 0 min 0 min 0,0 UV-I 76 W/m 12,9 km/h (3 Bft)
29.12.2013 12:46 5,9 C 4,4 C 91 % 1015,6 hPa 0,0 l/m 0 min 0 min 0,0 UV-I 84 W/m 10,3 km/h (2 Bft)
29.12.2013 12:48 5,9 C 4,4 C 91 % 1015,6 hPa 0,0 l/m 0 min 0 min 0,0 UV-I 84 W/m 15,4 km/h (3 Bft)
29.12.2013 12:50 5,9 C 4,4 C 91 % 1015,7 hPa 0,0 l/m 0 min 0 min 0,0 UV-I 91 W/m 10,3 km/h (2 Bft)
29.12.2013 12:52 5,9 C 4,4 C 91 % 1015,8 hPa 0,0 l/m 0 min 0 min 0,0 UV-I 72 W/m 12,9 km/h (3 Bft)
29.12.2013 12:54 5,9 C 4,4 C 91 % 1015,8 hPa 0,0 l/m 0 min 0 min 0,0 UV-I 65 W/m 10,3 km/h (2 Bft)
29.12.2013 12:56 6,0 C 4,4 C 91 % 1015,8 hPa 0,0 l/m 0 min 0 min 0,0 UV-I 56 W/m 7,7 km/h (2 Bft)
29.12.2013 12:58 6,0 C 4,4 C 91 % 1015,8 hPa 0,0 l/m 0 min 0 min 0,0 UV-I 70 W/m 10,3 km/h (2 Bft)
29.12.2013 13:00 6,0 C 4,4 C 91 % 1015,9 hPa 0,0 l/m 0 min 0 min 0,0 UV-I 69 W/m 12,9 km/h (3 Bft)
29.12.2013 13:02 6,0 C 4,4 C 91 % 1015,9 hPa 0,0 l/m 0 min 0 min 0,0 UV-I 86 W/m 2,6 km/h (1 Bft)
29.12.2013 13:04 6,0 C 5,0 C 91 % 1015,9 hPa 0,0 l/m 0 min 0 min 0,0 UV-I 76 W/m 2,6 km/h (1 Bft)
29.12.2013 13:06 6,1 C 5,0 C 91 % 1016,0 hPa 0,0 l/m 0 min 0 min 0,0 UV-I 93 W/m 7,7 km/h (2 Bft)
29.12.2013 13:08 6,0 C 5,0 C 91 % 1016,0 hPa 0,0 l/m 0 min 0 min 0,0 UV-I 97 W/m 7,7 km/h (2 Bft)
29.12.2013 13:10 6,1 C 5,0 C 91 % 1016,0 hPa 0,0 l/m 0 min 0 min 0,0 UV-I 77 W/m 12,9 km/h (3 Bft)
29.12.2013 13:12 6,1 C 5,0 C 91 % 1016,1 hPa 0,0 l/m 0 min 0 min 0,0 UV-I 74 W/m 10,3 km/h (2 Bft)
29.12.2013 13:14 6,1 C 5,0 C 91 % 1016,1 hPa 0,0 l/m 0 min 0 min 0,0 UV-I 65 W/m 5,1 km/h (1 Bft)
29.12.2013 13:16 6,1 C 5,0 C 91 % 1016,1 hPa 0,0 l/m 0 min 0 min 0,0 UV-I 104 W/m 5,1 km/h (1 Bft)
29.12.2013 13:18 6,1 C 5,0 C 91 % 1016,1 hPa 0,0 l/m 0 min 0 min 0,0 UV-I 114 W/m 10,3 km/h (2 Bft)
29.12.2013 13:20 6,1 C 5,0 C 91 % 1016,1 hPa 0,0 l/m 0 min 0 min 0,0 UV-I 123 W/m 5,1 km/h (1 Bft)
29.12.2013 13:22 6,2 C 5,0 C 91 % 1016,1 hPa 0,0 l/m 0 min 0 min 0,0 UV-I 90 W/m 5,1 km/h (1 Bft)
29.12.2013 13:24 6,2 C 5,0 C 91 % 1016,1 hPa 0,0 l/m 0 min 0 min 0,0 UV-I 69 W/m 10,3 km/h (2 Bft)
29.12.2013 13:26 6,2 C 5,0 C 91 % 1016,1 hPa 0,0 l/m 0 min 0 min 0,0 UV-I 77 W/m 7,7 km/h (2 Bft)
29.12.2013 13:28 6,2 C 5,0 C 91 % 1016,1 hPa 0,0 l/m 0 min 0 min 0,0 UV-I 81 W/m 5,1 km/h (1 Bft)
29.12.2013 13:30 6,2 C 5,0 C 95 % 1016,2 hPa 0,0 l/m 2 min 0 min 0,0 UV-I 265 W/m 7,7 km/h (2 Bft)
29.12.2013 13:32 6,2 C 5,0 C 91 % 1016,2 hPa 0,0 l/m 0 min 0 min 0,0 UV-I 107 W/m 10,3 km/h (2 Bft)
29.12.2013 13:34 6,2 C 5,0 C 90 % 1016,3 hPa 0,0 l/m 0 min 0 min 0,0 UV-I 111 W/m 15,4 km/h (3 Bft)
29.12.2013 13:36 6,2 C 5,0 C 90 % 1016,4 hPa 0,0 l/m 2 min 0 min 0,0 UV-I 202 W/m 12,9 km/h (3 Bft)
29.12.2013 13:38 6,2 C 5,0 C 90 % 1016,4 hPa 0,0 l/m 0 min 0 min 0,0 UV-I 102 W/m 7,7 km/h (2 Bft)
29.12.2013 13:40 6,2 C 5,0 C 90 % 1016,3 hPa 0,0 l/m 0 min 0 min 0,0 UV-I 95 W/m 12,9 km/h (3 Bft)
29.12.2013 13:42 6,2 C 5,0 C 90 % 1016,4 hPa 0,0 l/m 2 min 0 min 0,0 UV-I 213 W/m 7,7 km/h (2 Bft)
29.12.2013 13:44 6,3 C 5,0 C 90 % 1016,4 hPa 0,0 l/m 0 min 0 min 0,0 UV-I 113 W/m 12,9 km/h (3 Bft)
29.12.2013 13:46 6,2 C 5,0 C 90 % 1016,5 hPa 0,0 l/m 0 min 0 min 0,0 UV-I 79 W/m 12,9 km/h (3 Bft)
29.12.2013 13:48 6,2 C 5,0 C 90 % 1016,5 hPa 0,0 l/m 0 min 0 min 0,0 UV-I 90 W/m 12,9 km/h (3 Bft)
29.12.2013 13:50 6,2 C 5,0 C 89 % 1016,6 hPa 0,0 l/m 0 min 0 min 0,0 UV-I 77 W/m 7,7 km/h (2 Bft)
29.12.2013 13:52 6,2 C 5,0 C 89 % 1016,7 hPa 0,0 l/m 0 min 0 min 0,0 UV-I 79 W/m 7,7 km/h (2 Bft)
29.12.2013 13:54 6,2 C 5,0 C 89 % 1016,7 hPa 0,0 l/m 0 min 0 min 0,0 UV-I 79 W/m 12,9 km/h (3 Bft)
29.12.2013 13:56 6,2 C 5,0 C 89 % 1016,7 hPa 0,0 l/m 0 min 0 min 0,0 UV-I 90 W/m 7,7 km/h (2 Bft)
29.12.2013 13:58 6,2 C 5,0 C 90 % 1016,7 hPa 0,0 l/m 0 min 0 min 0,0 UV-I 93 W/m 2,6 km/h (1 Bft)
29.12.2013 14:00 6,2 C 5,0 C 90 % 1016,8 hPa 0,0 l/m 0 min 0 min 0,0 UV-I 97 W/m 10,3 km/h (2 Bft)
29.12.2013 14:02 6,2 C 5,0 C 90 % 1016,8 hPa 0,0 l/m 0 min 0 min 0,0 UV-I 72 W/m 2,6 km/h (1 Bft)
29.12.2013 14:04 6,2 C 5,0 C 90 % 1016,9 hPa 0,0 l/m 0 min 0 min 0,0 UV-I 100 W/m 10,3 km/h (2 Bft)
29.12.2013 14:06 6,2 C 5,0 C 90 % 1016,8 hPa 0,0 l/m 2 min 0 min 0,0 UV-I 137 W/m 10,3 km/h (2 Bft)
29.12.2013 14:08 6,3 C 5,0 C 90 % 1016,8 hPa 0,0 l/m 2 min 0 min 0,0 UV-I 149 W/m 0,0 km/h (0 Bft)
29.12.2013 14:10 6,3 C 5,0 C 90 % 1016,9 hPa 0,0 l/m 2 min 0 min 0,0 UV-I 218 W/m 7,7 km/h (2 Bft)
29.12.2013 14:12 6,4 C 5,0 C 90 % 1016,8 hPa 0,0 l/m 2 min 0 min 0,0 UV-I 202 W/m 5,1 km/h (1 Bft)
29.12.2013 14:14 6,4 C 5,0 C 90 % 1016,8 hPa 0,0 l/m 2 min 0 min 0,0 UV-I 207 W/m 5,1 km/h (1 Bft)
29.12.2013 14:16 6,5 C 5,0 C 90 % 1016,9 hPa 0,0 l/m 2 min 0 min 0,0 UV-I 130 W/m 10,3 km/h (2 Bft)
29.12.2013 14:18 6,5 C 5,0 C 89 % 1016,9 hPa 0,0 l/m 2 min 0 min 0,0 UV-I 171 W/m 12,9 km/h (3 Bft)
29.12.2013 14:20 6,5 C 5,0 C 89 % 1016,9 hPa 0,0 l/m 2 min 0 min 0,0 UV-I 176 W/m 5,1 km/h (1 Bft)
29.12.2013 14:22 6,5 C 5,0 C 89 % 1016,8 hPa 0,0 l/m 2 min 0 min 0,0 UV-I 178 W/m 2,6 km/h (1 Bft)
29.12.2013 14:24 6,5 C 5,0 C 89 % 1016,8 hPa 0,0 l/m 2 min 0 min 0,0 UV-I 169 W/m 0,0 km/h (0 Bft)
29.12.2013 14:26 6,6 C 5,0 C 89 % 1016,9 hPa 0,0 l/m 2 min 0 min 0,0 UV-I 172 W/m 5,1 km/h (1 Bft)
29.12.2013 14:28 6,6 C 5,0 C 89 % 1016,9 hPa 0,0 l/m 2 min 0 min 0,0 UV-I 158 W/m 10,3 km/h (2 Bft)
29.12.2013 14:30 6,6 C 5,0 C 89 % 1017,0 hPa 0,0 l/m 2 min 0 min 0,0 UV-I 179 W/m 7,7 km/h (2 Bft)
29.12.2013 14:32 6,6 C 5,0 C 89 % 1016,9 hPa 0,0 l/m 2 min 0 min 0,0 UV-I 176 W/m 10,3 km/h (2 Bft)
29.12.2013 14:34 6,6 C 5,0 C 88 % 1017,0 hPa 0,0 l/m 0 min 0 min 0,0 UV-I 84 W/m 7,7 km/h (2 Bft)
29.12.2013 14:36 6,6 C 5,0 C 88 % 1017,0 hPa 0,0 l/m 0 min 0 min 0,0 UV-I 67 W/m 10,3 km/h (2 Bft)
29.12.2013 14:38 6,6 C 5,0 C 88 % 1017,0 hPa 0,0 l/m 0 min 0 min 0,0 UV-I 81 W/m 0,0 km/h (0 Bft)
29.12.2013 14:40 6,6 C 5,0 C 88 % 1017,1 hPa 0,0 l/m 0 min 0 min 0,0 UV-I 100 W/m 10,3 km/h (2 Bft)
29.12.2013 14:42 6,5 C 5,0 C 88 % 1017,1 hPa 0,0 l/m 2 min 0 min 0,0 UV-I 141 W/m 18,0 km/h (3 Bft)
29.12.2013 14:44 6,5 C 5,0 C 88 % 1017,2 hPa 0,0 l/m 2 min 0 min 0,0 UV-I 156 W/m 10,3 km/h (2 Bft)
29.12.2013 14:46 6,5 C 5,0 C 88 % 1017,2 hPa 0,0 l/m 2 min 0 min 0,0 UV-I 160 W/m 18,0 km/h (3 Bft)
29.12.2013 14:48 6,5 C 5,0 C 87 % 1017,2 hPa 0,0 l/m 0 min 0 min 0,0 UV-I 90 W/m 10,3 km/h (2 Bft)
29.12.2013 14:50 6,5 C 5,0 C 87 % 1017,2 hPa 0,0 l/m 0 min 0 min 0,0 UV-I 74 W/m 5,1 km/h (1 Bft)
29.12.2013 14:52 6,4 C 5,0 C 87 % 1017,2 hPa 0,0 l/m 0 min 0 min 0,0 UV-I 53 W/m 15,4 km/h (3 Bft)
29.12.2013 14:54 6,4 C 5,0 C 87 % 1017,2 hPa 0,0 l/m 2 min 0 min 0,0 UV-I 111 W/m 12,9 km/h (3 Bft)
29.12.2013 14:56 6,3 C 4,4 C 87 % 1017,2 hPa 0,0 l/m 2 min 0 min 0,0 UV-I 120 W/m 12,9 km/h (3 Bft)
29.12.2013 14:58 6,3 C 4,4 C 87 % 1017,3 hPa 0,0 l/m 0 min 0 min 0,0 UV-I 84 W/m 25,7 km/h (4 Bft)
29.12.2013 15:00 6,3 C 4,4 C 87 % 1017,3 hPa 0,0 l/m 0 min 0 min 0,0 UV-I 74 W/m 12,9 km/h (3 Bft)
29.12.2013 15:02 6,3 C 4,4 C 88 % 1017,3 hPa 0,0 l/m 0 min 0 min 0,0 UV-I 56 W/m 10,3 km/h (2 Bft)
29.12.2013 15:04 6,3 C 4,4 C 88 % 1017,3 hPa 0,0 l/m 0 min 0 min 0,0 UV-I 54 W/m 10,3 km/h (2 Bft)
29.12.2013 15:06 6,3 C 4,4 C 88 % 1017,3 hPa 0,0 l/m 0 min 0 min 0,0 UV-I 63 W/m 7,7 km/h (2 Bft)
29.12.2013 15:08 6,3 C 4,4 C 88 % 1017,3 hPa 0,0 l/m 0 min 0 min 0,0 UV-I 67 W/m 7,7 km/h (2 Bft)
29.12.2013 15:10 6,3 C 5,0 C 88 % 1017,3 hPa 0,0 l/m 0 min 0 min 0,0 UV-I 53 W/m 10,3 km/h (2 Bft)
29.12.2013 15:12 6,4 C 4,4 C 88 % 1017,3 hPa 0,0 l/m 0 min 0 min 0,0 UV-I 46 W/m 7,7 km/h (2 Bft)
29.12.2013 15:14 6,4 C 4,4 C 88 % 1017,3 hPa 0,0 l/m 0 min 0 min 0,0 UV-I 37 W/m 0,0 km/h (0 Bft)
29.12.2013 15:16 6,3 C 4,4 C 88 % 1017,3 hPa 0,0 l/m 0 min 0 min 0,0 UV-I 37 W/m 10,3 km/h (2 Bft)
29.12.2013 15:18 6,3 C 4,4 C 88 % 1017,4 hPa 0,0 l/m 0 min 0 min 0,0 UV-I 35 W/m 12,9 km/h (3 Bft)
29.12.2013 15:20 6,3 C 4,4 C 88 % 1017,4 hPa 0,0 l/m 0 min 0 min 0,0 UV-I 35 W/m 7,7 km/h (2 Bft)
29.12.2013 15:22 6,3 C 4,4 C 88 % 1017,4 hPa 0,0 l/m 0 min 0 min 0,0 UV-I 33 W/m 12,9 km/h (3 Bft)
29.12.2013 15:24 6,3 C 4,4 C 88 % 1017,4 hPa 0,0 l/m 0 min 0 min 0,0 UV-I 33 W/m 5,1 km/h (1 Bft)
29.12.2013 15:26 6,2 C 4,4 C 88 % 1017,5 hPa 0,0 l/m 0 min 0 min 0,0 UV-I 33 W/m 0,0 km/h (0 Bft)
29.12.2013 15:28 6,2 C 4,4 C 88 % 1017,5 hPa 0,0 l/m 0 min 0 min 0,0 UV-I 32 W/m 0,0 km/h (0 Bft)
29.12.2013 15:30 6,2 C 4,4 C 88 % 1017,5 hPa 0,0 l/m 0 min 0 min 0,0 UV-I 32 W/m 0,0 km/h (0 Bft)
29.12.2013 15:32 6,2 C 4,4 C 88 % 1017,6 hPa 0,0 l/m 0 min 0 min 0,0 UV-I 30 W/m 15,4 km/h (3 Bft)
29.12.2013 15:34 6,2 C 4,4 C 88 % 1017,6 hPa 0,0 l/m 0 min 0 min 0,0 UV-I 30 W/m 7,7 km/h (2 Bft)
29.12.2013 15:36 6,2 C 4,4 C 88 % 1017,5 hPa 0,0 l/m 0 min 0 min 0,0 UV-I 28 W/m 5,1 km/h (1 Bft)
29.12.2013 15:38 6,2 C 4,4 C 88 % 1017,6 hPa 0,0 l/m 0 min 0 min 0,0 UV-I 28 W/m 7,7 km/h (2 Bft)
29.12.2013 15:40 6,1 C 4,4 C 88 % 1017,7 hPa 0,0 l/m 0 min 0 min 0,0 UV-I 28 W/m 7,7 km/h (2 Bft)
29.12.2013 15:42 6,1 C 4,4 C 88 % 1017,8 hPa 0,0 l/m 0 min 0 min 0,0 UV-I 26 W/m 7,7 km/h (2 Bft)
29.12.2013 15:44 6,1 C 4,4 C 88 % 1017,9 hPa 0,0 l/m 0 min 0 min 0,0 UV-I 26 W/m 5,1 km/h (1 Bft)
29.12.2013 15:46 6,1 C 4,4 C 89 % 1017,9 hPa 0,0 l/m 0 min 0 min 0,0 UV-I 25 W/m 7,7 km/h (2 Bft)
29.12.2013 15:48 6,1 C 4,4 C 89 % 1017,9 hPa 0,0 l/m 0 min 0 min 0,0 UV-I 23 W/m 12,9 km/h (3 Bft)
29.12.2013 15:50 6,0 C 3,9 C 89 % 1017,9 hPa 0,0 l/m 0 min 0 min 0,0 UV-I 23 W/m 5,1 km/h (1 Bft)
29.12.2013 15:52 6,0 C 4,4 C 89 % 1018,0 hPa 0,0 l/m 0 min 0 min 0,0 UV-I 21 W/m 7,7 km/h (2 Bft)
29.12.2013 15:54 6,0 C 3,9 C 89 % 1018,0 hPa 0,0 l/m 0 min 0 min 0,0 UV-I 21 W/m 7,7 km/h (2 Bft)
29.12.2013 15:56 6,0 C 3,9 C 89 % 1018,0 hPa 0,0 l/m 0 min 0 min 0,0 UV-I 19 W/m 5,1 km/h (1 Bft)
29.12.2013 15:58 5,9 C 3,9 C 89 % 1018,1 hPa 0,0 l/m 0 min 0 min 0,0 UV-I 18 W/m 7,7 km/h (2 Bft)
29.12.2013 16:00 5,9 C 3,9 C 89 % 1018,2 hPa 0,0 l/m 0 min 0 min 0,0 UV-I 18 W/m 2,6 km/h (1 Bft)
29.12.2013 16:02 5,9 C 3,9 C 89 % 1018,2 hPa 0,0 l/m 0 min 0 min 0,0 UV-I 18 W/m 10,3 km/h (2 Bft)
29.12.2013 16:04 5,9 C 3,9 C 89 % 1018,2 hPa 0,0 l/m 0 min 0 min 0,0 UV-I 16 W/m 7,7 km/h (2 Bft)
29.12.2013 16:06 5,9 C 3,9 C 89 % 1018,2 hPa 0,0 l/m 0 min 0 min 0,0 UV-I 16 W/m 2,6 km/h (1 Bft)
29.12.2013 16:08 5,8 C 3,9 C 89 % 1018,3 hPa 0,0 l/m 0 min 0 min 0,0 UV-I 16 W/m 7,7 km/h (2 Bft)
29.12.2013 16:10 5,8 C 3,9 C 89 % 1018,4 hPa 0,0 l/m 0 min 0 min 0,0 UV-I 14 W/m 0,0 km/h (0 Bft)
29.12.2013 16:12 5,7 C 3,9 C 89 % 1018,5 hPa 0,0 l/m 0 min 0 min 0,0 UV-I 14 W/m 0,0 km/h (0 Bft)
29.12.2013 16:14 5,7 C 3,9 C 89 % 1018,5 hPa 0,0 l/m 0 min 0 min 0,0 UV-I 14 W/m 0,0 km/h (0 Bft)
29.12.2013 16:16 5,7 C 3,9 C 90 % 1018,6 hPa 0,0 l/m 0 min 0 min 0,0 UV-I 12 W/m 2,6 km/h (1 Bft)
29.12.2013 16:18 5,6 C 3,9 C 90 % 1018,6 hPa 0,0 l/m 0 min 0 min 0,0 UV-I 11 W/m 0,0 km/h (0 Bft)
29.12.2013 16:20 5,6 C 3,9 C 90 % 1018,7 hPa 0,0 l/m 0 min 0 min 0,0 UV-I 11 W/m 0,0 km/h (0 Bft)
29.12.2013 16:22 5,5 C 3,9 C 90 % 1018,7 hPa 0,0 l/m 0 min 0 min 0,0 UV-I 11 W/m 0,0 km/h (0 Bft)
29.12.2013 16:24 5,5 C 3,3 C 90 % 1018,7 hPa 0,0 l/m 0 min 0 min 0,0 UV-I 9 W/m 0,0 km/h (0 Bft)
29.12.2013 16:26 5,4 C 3,3 C 90 % 1018,8 hPa 0,0 l/m 0 min 0 min 0,0 UV-I 9 W/m 0,0 km/h (0 Bft)
29.12.2013 16:28 5,4 C 3,3 C 90 % 1018,8 hPa 0,0 l/m 0 min 0 min 0,0 UV-I 7 W/m 0,0 km/h (0 Bft)
29.12.2013 16:30 5,4 C 3,3 C 90 % 1018,9 hPa 0,0 l/m 0 min 0 min 0,0 UV-I 7 W/m 0,0 km/h (0 Bft)
29.12.2013 16:32 5,3 C 3,3 C 90 % 1018,9 hPa 0,0 l/m 0 min 0 min 0,0 UV-I 7 W/m 0,0 km/h (0 Bft)
29.12.2013 16:34 5,3 C 3,3 C 91 % 1018,9 hPa 0,0 l/m 0 min 0 min 0,0 UV-I 5 W/m 0,0 km/h (0 Bft)
29.12.2013 16:36 5,3 C 3,3 C 90 % 1019,0 hPa 0,0 l/m 0 min 0 min 0,0 UV-I 5 W/m 0,0 km/h (0 Bft)
29.12.2013 16:38 5,2 C 3,3 C 90 % 1019,0 hPa 0,0 l/m 0 min 0 min 0,0 UV-I 5 W/m 7,7 km/h (2 Bft)
29.12.2013 16:40 5,2 C 3,3 C 90 % 1019,0 hPa 0,0 l/m 0 min 0 min 0,0 UV-I 5 W/m 0,0 km/h (0 Bft)
29.12.2013 16:42 5,2 C 3,3 C 91 % 1019,1 hPa 0,0 l/m 0 min 0 min 0,0 UV-I 0 W/m 0,0 km/h (0 Bft)
29.12.2013 16:44 5,2 C 3,3 C 91 % 1019,1 hPa 0,0 l/m 0 min 0 min 0,0 UV-I 0 W/m 2,6 km/h (1 Bft)
29.12.2013 16:46 5,2 C 3,3 C 91 % 1019,1 hPa 0,0 l/m 0 min 0 min 0,0 UV-I 0 W/m 2,6 km/h (1 Bft)
29.12.2013 16:48 5,2 C 3,3 C 91 % 1019,2 hPa 0,0 l/m 0 min 0 min 0,0 UV-I 0 W/m 5,1 km/h (1 Bft)
29.12.2013 16:50 5,1 C 2,8 C 91 % 1019,2 hPa 0,0 l/m 0 min 0 min 0,0 UV-I 0 W/m 0,0 km/h (0 Bft)
29.12.2013 16:52 5,1 C 3,3 C 91 % 1019,2 hPa 0,0 l/m 0 min 0 min 0,0 UV-I 0 W/m 2,6 km/h (1 Bft)
29.12.2013 16:54 5,1 C 2,8 C 91 % 1019,2 hPa 0,0 l/m 0 min 0 min 0,0 UV-I 0 W/m 0,0 km/h (0 Bft)
29.12.2013 16:56 5,1 C 2,8 C 91 % 1019,3 hPa 0,0 l/m 0 min 0 min 0,0 UV-I 0 W/m 0,0 km/h (0 Bft)
29.12.2013 16:58 5,0 C 2,8 C 91 % 1019,3 hPa 0,0 l/m 0 min 0 min 0,0 UV-I 0 W/m 0,0 km/h (0 Bft)
29.12.2013 17:00 5,0 C 3,3 C 91 % 1019,3 hPa 0,0 l/m 0 min 0 min 0,0 UV-I 0 W/m 2,6 km/h (1 Bft)
29.12.2013 17:02 4,9 C 2,8 C 95 % 1019,3 hPa 0,0 l/m 0 min 0 min 0,0 UV-I 0 W/m 0,0 km/h (0 Bft)
29.12.2013 17:04 4,9 C 2,8 C 90 % 1019,3 hPa 0,0 l/m 0 min 0 min 0,0 UV-I 0 W/m 0,0 km/h (0 Bft)
29.12.2013 17:06 4,9 C 2,8 C 90 % 1019,3 hPa 0,0 l/m 0 min 0 min 0,0 UV-I 0 W/m 0,0 km/h (0 Bft)
29.12.2013 17:08 4,9 C 2,8 C 90 % 1019,4 hPa 0,0 l/m 0 min 0 min 0,0 UV-I 0 W/m 0,0 km/h (0 Bft)
29.12.2013 17:10 4,9 C 2,8 C 90 % 1019,5 hPa 0,0 l/m 0 min 0 min 0,0 UV-I 0 W/m 0,0 km/h (0 Bft)
29.12.2013 17:12 4,8 C 2,8 C 90 % 1019,6 hPa 0,0 l/m 0 min 0 min 0,0 UV-I 0 W/m 0,0 km/h (0 Bft)
29.12.2013 17:14 4,8 C 2,8 C 90 % 1019,6 hPa 0,0 l/m 0 min 0 min 0,0 UV-I 0 W/m 0,0 km/h (0 Bft)
29.12.2013 17:16 4,8 C 2,8 C 90 % 1019,7 hPa 0,0 l/m 0 min 0 min 0,0 UV-I 0 W/m 0,0 km/h (0 Bft)
29.12.2013 17:18 4,8 C 2,8 C 90 % 1019,8 hPa 0,0 l/m 0 min 0 min 0,0 UV-I 0 W/m 0,0 km/h (0 Bft)
29.12.2013 17:20 4,8 C 2,8 C 91 % 1019,8 hPa 0,0 l/m 0 min 0 min 0,0 UV-I 0 W/m 0,0 km/h (0 Bft)
29.12.2013 17:22 4,8 C 2,8 C 91 % 1019,8 hPa 0,0 l/m 0 min 0 min 0,0 UV-I 0 W/m 0,0 km/h (0 Bft)
29.12.2013 17:24 4,7 C 2,8 C 91 % 1019,8 hPa 0,0 l/m 0 min 0 min 0,0 UV-I 0 W/m 0,0 km/h (0 Bft)
29.12.2013 17:26 4,7 C 2,8 C 91 % 1019,8 hPa 0,0 l/m 0 min 0 min 0,0 UV-I 0 W/m 0,0 km/h (0 Bft)
29.12.2013 17:28 4,7 C 2,8 C 91 % 1019,9 hPa 0,0 l/m 0 min 0 min 0,0 UV-I 0 W/m 0,0 km/h (0 Bft)
29.12.2013 17:30 4,7 C 2,8 C 91 % 1019,9 hPa 0,0 l/m 0 min 0 min 0,0 UV-I 0 W/m 0,0 km/h (0 Bft)
29.12.2013 17:32 4,7 C 2,8 C 91 % 1019,9 hPa 0,0 l/m 0 min 0 min 0,0 UV-I 0 W/m 0,0 km/h (0 Bft)
29.12.2013 17:34 4,7 C 2,8 C 91 % 1019,9 hPa 0,0 l/m 0 min 0 min 0,0 UV-I 0 W/m 0,0 km/h (0 Bft)
29.12.2013 17:36 4,6 C 2,8 C 91 % 1019,9 hPa 0,0 l/m 0 min 0 min 0,0 UV-I 0 W/m 0,0 km/h (0 Bft)
29.12.2013 17:38 4,6 C 2,8 C 91 % 1020,0 hPa 0,0 l/m 0 min 0 min 0,0 UV-I 0 W/m 0,0 km/h (0 Bft)
29.12.2013 17:40 4,6 C 2,8 C 91 % 1020,0 hPa 0,0 l/m 0 min 0 min 0,0 UV-I 0 W/m 0,0 km/h (0 Bft)
29.12.2013 17:42 4,6 C 2,2 C 91 % 1020,0 hPa 0,0 l/m 0 min 0 min 0,0 UV-I 0 W/m 0,0 km/h (0 Bft)
29.12.2013 17:44 4,6 C 2,2 C 91 % 1020,1 hPa 0,0 l/m 0 min 0 min 0,0 UV-I 0 W/m 0,0 km/h (0 Bft)
29.12.2013 17:46 4,5 C 2,2 C 91 % 1020,1 hPa 0,0 l/m 0 min 0 min 0,0 UV-I 0 W/m 0,0 km/h (0 Bft)
29.12.2013 17:48 4,5 C 2,2 C 91 % 1020,1 hPa 0,0 l/m 0 min 0 min 0,0 UV-I 0 W/m 0,0 km/h (0 Bft)
29.12.2013 17:50 4,4 C 2,2 C 91 % 1020,2 hPa 0,0 l/m 0 min 0 min 0,0 UV-I 0 W/m 0,0 km/h (0 Bft)
29.12.2013 17:52 4,4 C 2,2 C 91 % 1020,3 hPa 0,0 l/m 0 min 0 min 0,0 UV-I 0 W/m 0,0 km/h (0 Bft)
29.12.2013 17:54 4,4 C 1,7 C 91 % 1020,3 hPa 0,0 l/m 0 min 0 min 0,0 UV-I 0 W/m 0,0 km/h (0 Bft)
29.12.2013 17:56 4,4 C 1,7 C 91 % 1020,3 hPa 0,0 l/m 0 min 0 min 0,0 UV-I 0 W/m 0,0 km/h (0 Bft)
29.12.2013 17:58 4,3 C 1,7 C 91 % 1020,4 hPa 0,0 l/m 0 min 0 min 0,0 UV-I 0 W/m 0,0 km/h (0 Bft)
29.12.2013 18:00 4,3 C 1,7 C 91 % 1020,4 hPa 0,0 l/m 0 min 0 min 0,0 UV-I 0 W/m 0,0 km/h (0 Bft)
29.12.2013 18:02 4,3 C 1,7 C 91 % 1020,4 hPa 0,0 l/m 0 min 0 min 0,0 UV-I 0 W/m 0,0 km/h (0 Bft)
29.12.2013 18:04 4,3 C 1,7 C 91 % 1020,4 hPa 0,0 l/m 0 min 0 min 0,0 UV-I 0 W/m 0,0 km/h (0 Bft)
29.12.2013 18:06 4,2 C 1,7 C 91 % 1020,4 hPa 0,0 l/m 0 min 0 min 0,0 UV-I 0 W/m 0,0 km/h (0 Bft)
29.12.2013 18:08 4,2 C 1,7 C 91 % 1020,4 hPa 0,0 l/m 0 min 0 min 0,0 UV-I 0 W/m 0,0 km/h (0 Bft)
29.12.2013 18:10 4,2 C 1,7 C 91 % 1020,5 hPa 0,0 l/m 0 min 0 min 0,0 UV-I 0 W/m 0,0 km/h (0 Bft)
29.12.2013 18:12 4,1 C 1,7 C 91 % 1020,4 hPa 0,0 l/m 0 min 0 min 0,0 UV-I 0 W/m 0,0 km/h (0 Bft)
29.12.2013 18:14 4,1 C 1,7 C 91 % 1020,5 hPa 0,0 l/m 0 min 0 min 0,0 UV-I 0 W/m 0,0 km/h (0 Bft)
29.12.2013 18:16 4,1 C 1,7 C 91 % 1020,5 hPa 0,0 l/m 0 min 0 min 0,0 UV-I 0 W/m 0,0 km/h (0 Bft)
29.12.2013 18:18 4,1 C 1,7 C 91 % 1020,6 hPa 0,0 l/m 0 min 0 min 0,0 UV-I 0 W/m 0,0 km/h (0 Bft)
29.12.2013 18:20 4,0 C 1,7 C 91 % 1020,6 hPa 0,0 l/m 0 min 0 min 0,0 UV-I 0 W/m 0,0 km/h (0 Bft)
29.12.2013 18:22 4,0 C 1,7 C 91 % 1020,6 hPa 0,0 l/m 0 min 0 min 0,0 UV-I 0 W/m 0,0 km/h (0 Bft)
29.12.2013 18:24 4,0 C 1,7 C 91 % 1020,6 hPa 0,0 l/m 0 min 0 min 0,0 UV-I 0 W/m 0,0 km/h (0 Bft)
29.12.2013 18:26 3,9 C 2,2 C 92 % 1020,7 hPa 0,0 l/m 0 min 0 min 0,0 UV-I 0 W/m 0,0 km/h (0 Bft)
29.12.2013 18:28 3,9 C 2,2 C 92 % 1020,7 hPa 0,0 l/m 0 min 0 min 0,0 UV-I 0 W/m 7,7 km/h (2 Bft)
29.12.2013 18:30 3,9 C 2,2 C 92 % 1020,7 hPa 0,0 l/m 0 min 0 min 0,0 UV-I 0 W/m 10,3 km/h (2 Bft)
29.12.2013 18:32 3,9 C 2,2 C 92 % 1020,8 hPa 0,0 l/m 0 min 0 min 0,0 UV-I 0 W/m 5,1 km/h (1 Bft)
29.12.2013 18:34 3,9 C 2,2 C 92 % 1020,8 hPa 0,0 l/m 0 min 0 min 0,0 UV-I 0 W/m 0,0 km/h (0 Bft)
29.12.2013 18:36 3,9 C 2,2 C 92 % 1020,9 hPa 0,0 l/m 0 min 0 min 0,0 UV-I 0 W/m 10,3 km/h (2 Bft)
29.12.2013 18:38 3,9 C 2,2 C 92 % 1020,8 hPa 0,0 l/m 0 min 0 min 0,0 UV-I 0 W/m 7,7 km/h (2 Bft)
29.12.2013 18:40 3,9 C 2,2 C 92 % 1020,8 hPa 0,0 l/m 0 min 0 min 0,0 UV-I 0 W/m 7,7 km/h (2 Bft)
29.12.2013 18:42 3,9 C 2,2 C 92 % 1020,9 hPa 0,0 l/m 0 min 0 min 0,0 UV-I 0 W/m 7,7 km/h (2 Bft)
29.12.2013 18:44 3,9 C 2,2 C 92 % 1020,9 hPa 0,0 l/m 0 min 0 min 0,0 UV-I 0 W/m 0,0 km/h (0 Bft)
29.12.2013 18:46 3,9 C 2,2 C 93 % 1020,9 hPa 0,0 l/m 0 min 0 min 0,0 UV-I 0 W/m 5,1 km/h (1 Bft)
29.12.2013 18:48 3,9 C 2,2 C 93 % 1021,0 hPa 0,0 l/m 0 min 0 min 0,0 UV-I 0 W/m 7,7 km/h (2 Bft)
29.12.2013 18:50 3,9 C 2,2 C 93 % 1021,0 hPa 0,0 l/m 0 min 0 min 0,0 UV-I 0 W/m 5,1 km/h (1 Bft)
29.12.2013 18:52 3,9 C 2,2 C 93 % 1021,0 hPa 0,0 l/m 0 min 0 min 0,0 UV-I 0 W/m 7,7 km/h (2 Bft)
29.12.2013 18:54 3,9 C 2,2 C 93 % 1021,0 hPa 0,0 l/m 0 min 0 min 0,0 UV-I 0 W/m 0,0 km/h (0 Bft)
29.12.2013 18:56 3,9 C 2,2 C 93 % 1021,0 hPa 0,0 l/m 0 min 0 min 0,0 UV-I 0 W/m 5,1 km/h (1 Bft)
29.12.2013 18:58 3,9 C 2,2 C 93 % 1021,0 hPa 0,0 l/m 0 min 0 min 0,0 UV-I 0 W/m 0,0 km/h (0 Bft)
29.12.2013 19:00 3,9 C 2,2 C 93 % 1021,0 hPa 0,0 l/m 0 min 0 min 0,0 UV-I 0 W/m 10,3 km/h (2 Bft)
29.12.2013 19:02 3,9 C 2,2 C 93 % 1021,0 hPa 0,0 l/m 0 min 0 min 0,0 UV-I 0 W/m 2,6 km/h (1 Bft)
29.12.2013 19:04 3,8 C 2,2 C 93 % 1021,1 hPa 0,0 l/m 0 min 0 min 0,0 UV-I 0 W/m 0,0 km/h (0 Bft)
29.12.2013 19:06 3,9 C 2,2 C 93 % 1021,0 hPa 0,0 l/m 0 min 0 min 0,0 UV-I 0 W/m 7,7 km/h (2 Bft)
29.12.2013 19:08 3,8 C 2,2 C 93 % 1021,0 hPa 0,0 l/m 0 min 0 min 0,0 UV-I 0 W/m 0,0 km/h (0 Bft)
29.12.2013 19:10 3,8 C 2,2 C 93 % 1021,0 hPa 0,0 l/m 0 min 0 min 0,0 UV-I 0 W/m 0,0 km/h (0 Bft)
29.12.2013 19:12 3,8 C 2,2 C 93 % 1021,1 hPa 0,0 l/m 0 min 0 min 0,0 UV-I 0 W/m 2,6 km/h (1 Bft)
29.12.2013 19:14 3,8 C 2,2 C 93 % 1021,1 hPa 0,0 l/m 0 min 0 min 0,0 UV-I 0 W/m 10,3 km/h (2 Bft)
29.12.2013 19:16 3,8 C 2,2 C 93 % 1021,2 hPa 0,0 l/m 0 min 0 min 0,0 UV-I 0 W/m 23,2 km/h (4 Bft)
29.12.2013 19:18 3,8 C 2,2 C 93 % 1021,2 hPa 0,0 l/m 0 min 0 min 0,0 UV-I 0 W/m 10,3 km/h (2 Bft)
29.12.2013 19:20 3,8 C 2,2 C 93 % 1021,1 hPa 0,0 l/m 0 min 0 min 0,0 UV-I 0 W/m 7,7 km/h (2 Bft)
29.12.2013 19:22 3,8 C 2,2 C 93 % 1021,1 hPa 0,0 l/m 0 min 0 min 0,0 UV-I 0 W/m 7,7 km/h (2 Bft)
29.12.2013 19:24 3,8 C 2,2 C 93 % 1021,1 hPa 0,0 l/m 0 min 0 min 0,0 UV-I 0 W/m 0,0 km/h (0 Bft)
29.12.2013 19:26 3,8 C 2,2 C 93 % 1021,2 hPa 0,0 l/m 0 min 0 min 0,0 UV-I 0 W/m 0,0 km/h (0 Bft)
29.12.2013 19:28 3,8 C 2,2 C 93 % 1021,3 hPa 0,0 l/m 0 min 0 min 0,0 UV-I 0 W/m 5,1 km/h (1 Bft)
29.12.2013 19:30 3,8 C 2,2 C 93 % 1021,2 hPa 0,0 l/m 0 min 0 min 0,0 UV-I 0 W/m 7,7 km/h (2 Bft)
29.12.2013 19:32 3,8 C 2,2 C 93 % 1021,3 hPa 0,0 l/m 0 min 0 min 0,0 UV-I 0 W/m 0,0 km/h (0 Bft)
29.12.2013 19:34 3,8 C 2,2 C 93 % 1021,4 hPa 0,0 l/m 0 min 0 min 0,0 UV-I 0 W/m 0,0 km/h (0 Bft)
29.12.2013 19:36 3,8 C 2,2 C 93 % 1021,4 hPa 0,0 l/m 0 min 0 min 0,0 UV-I 0 W/m 0,0 km/h (0 Bft)
29.12.2013 19:38 3,8 C 2,2 C 93 % 1021,4 hPa 0,0 l/m 0 min 0 min 0,0 UV-I 0 W/m 0,0 km/h (0 Bft)
29.12.2013 19:40 3,8 C 2,2 C 93 % 1021,4 hPa 0,0 l/m 0 min 0 min 0,0 UV-I 0 W/m 5,1 km/h (1 Bft)
29.12.2013 19:42 3,8 C 2,2 C 93 % 1021,5 hPa 0,0 l/m 0 min 0 min 0,0 UV-I 0 W/m 5,1 km/h (1 Bft)
29.12.2013 19:44 3,8 C 2,2 C 93 % 1021,5 hPa 0,0 l/m 0 min 0 min 0,0 UV-I 0 W/m 5,1 km/h (1 Bft)
29.12.2013 19:46 3,8 C 2,2 C 93 % 1021,5 hPa 0,0 l/m 0 min 0 min 0,0 UV-I 0 W/m 0,0 km/h (0 Bft)
29.12.2013 19:48 3,7 C 2,2 C 93 % 1021,5 hPa 0,0 l/m 0 min 0 min 0,0 UV-I 0 W/m 0,0 km/h (0 Bft)
29.12.2013 19:50 3,7 C 2,2 C 93 % 1021,5 hPa 0,0 l/m 0 min 0 min 0,0 UV-I 0 W/m 7,7 km/h (2 Bft)
29.12.2013 19:52 3,7 C 2,2 C 93 % 1021,5 hPa 0,0 l/m 0 min 0 min 0,0 UV-I 0 W/m 0,0 km/h (0 Bft)
29.12.2013 19:54 3,7 C 1,7 C 93 % 1021,6 hPa 0,0 l/m 0 min 0 min 0,0 UV-I 0 W/m 2,6 km/h (1 Bft)
29.12.2013 19:56 3,7 C 2,2 C 93 % 1021,6 hPa 0,0 l/m 0 min 0 min 0,0 UV-I 0 W/m 0,0 km/h (0 Bft)
29.12.2013 19:58 3,7 C 1,7 C 93 % 1021,6 hPa 0,0 l/m 0 min 0 min 0,0 UV-I 0 W/m 0,0 km/h (0 Bft)
29.12.2013 20:00 3,7 C 1,7 C 93 % 1021,7 hPa 0,0 l/m 0 min 0 min 0,0 UV-I 0 W/m 0,0 km/h (0 Bft)
29.12.2013 20:02 3,7 C 1,7 C 93 % 1021,6 hPa 0,0 l/m 0 min 0 min 0,0 UV-I 0 W/m 2,6 km/h (1 Bft)
29.12.2013 20:04 3,6 C 1,7 C 93 % 1021,6 hPa 0,0 l/m 0 min 0 min 0,0 UV-I 0 W/m 0,0 km/h (0 Bft)
29.12.2013 20:06 3,6 C 1,7 C 93 % 1021,7 hPa 0,0 l/m 0 min 0 min 0,0 UV-I 0 W/m 7,7 km/h (2 Bft)
29.12.2013 20:08 3,6 C 1,7 C 93 % 1021,7 hPa 0,0 l/m 0 min 0 min 0,0 UV-I 0 W/m 0,0 km/h (0 Bft)
29.12.2013 20:10 3,6 C 1,7 C 93 % 1021,7 hPa 0,0 l/m 0 min 0 min 0,0 UV-I 0 W/m 0,0 km/h (0 Bft)
29.12.2013 20:12 3,6 C 1,7 C 93 % 1021,7 hPa 0,0 l/m 0 min 0 min 0,0 UV-I 0 W/m 7,7 km/h (2 Bft)
29.12.2013 20:14 3,5 C 1,7 C 93 % 1021,7 hPa 0,0 l/m 0 min 0 min 0,0 UV-I 0 W/m 2,6 km/h (1 Bft)
29.12.2013 20:16 3,5 C 1,7 C 93 % 1021,8 hPa 0,0 l/m 0 min 0 min 0,0 UV-I 0 W/m 0,0 km/h (0 Bft)
29.12.2013 20:18 3,5 C 1,7 C 93 % 1021,8 hPa 0,0 l/m 0 min 0 min 0,0 UV-I 0 W/m 10,3 km/h (2 Bft)
29.12.2013 20:20 3,5 C 2,2 C 93 % 1021,8 hPa 0,0 l/m 0 min 0 min 0,0 UV-I 0 W/m 10,3 km/h (2 Bft)
29.12.2013 20:22 3,5 C 1,7 C 93 % 1021,8 hPa 0,0 l/m 0 min 0 min 0,0 UV-I 0 W/m 0,0 km/h (0 Bft)
29.12.2013 20:24 3,4 C 1,7 C 93 % 1021,8 hPa 0,0 l/m 0 min 0 min 0,0 UV-I 0 W/m 7,7 km/h (2 Bft)
29.12.2013 20:26 3,4 C 2,2 C 93 % 1021,8 hPa 0,0 l/m 0 min 0 min 0,0 UV-I 0 W/m 10,3 km/h (2 Bft)
29.12.2013 20:28 3,4 C 2,2 C 93 % 1021,8 hPa 0,0 l/m 0 min 0 min 0,0 UV-I 0 W/m 2,6 km/h (1 Bft)
29.12.2013 20:30 3,4 C 2,2 C 93 % 1021,8 hPa 0,0 l/m 0 min 0 min 0,0 UV-I 0 W/m 2,6 km/h (1 Bft)
29.12.2013 20:32 3,4 C 1,7 C 93 % 1021,8 hPa 0,0 l/m 0 min 0 min 0,0 UV-I 0 W/m 0,0 km/h (0 Bft)
29.12.2013 20:34 3,4 C 1,7 C 93 % 1021,8 hPa 0,0 l/m 0 min 0 min 0,0 UV-I 0 W/m 0,0 km/h (0 Bft)
29.12.2013 20:36 3,4 C 1,7 C 93 % 1021,8 hPa 0,0 l/m 0 min 0 min 0,0 UV-I 0 W/m 0,0 km/h (0 Bft)
29.12.2013 20:38 3,4 C 1,7 C 93 % 1021,9 hPa 0,0 l/m 0 min 0 min 0,0 UV-I 0 W/m 10,3 km/h (2 Bft)
29.12.2013 20:40 3,4 C 1,7 C 93 % 1021,9 hPa 0,0 l/m 0 min 0 min 0,0 UV-I 0 W/m 5,1 km/h (1 Bft)
29.12.2013 20:42 3,4 C 1,7 C 93 % 1021,9 hPa 0,0 l/m 0 min 0 min 0,0 UV-I 0 W/m 7,7 km/h (2 Bft)
29.12.2013 20:44 3,4 C 1,7 C 93 % 1022,0 hPa 0,0 l/m 0 min 0 min 0,0 UV-I 0 W/m 0,0 km/h (0 Bft)
29.12.2013 20:46 3,4 C 1,7 C 93 % 1022,2 hPa 0,0 l/m 0 min 0 min 0,0 UV-I 0 W/m 0,0 km/h (0 Bft)
29.12.2013 20:48 3,4 C 1,7 C 93 % 1022,2 hPa 0,0 l/m 0 min 0 min 0,0 UV-I 0 W/m 0,0 km/h (0 Bft)
29.12.2013 20:50 3,3 C 1,7 C 93 % 1022,2 hPa 0,0 l/m 0 min 0 min 0,0 UV-I 0 W/m 10,3 km/h (2 Bft)
29.12.2013 20:52 3,3 C 1,7 C 94 % 1022,2 hPa 0,0 l/m 0 min 0 min 0,0 UV-I 0 W/m 2,6 km/h (1 Bft)
29.12.2013 20:54 3,3 C 1,7 C 94 % 1022,2 hPa 0,0 l/m 0 min 0 min 0,0 UV-I 0 W/m 0,0 km/h (0 Bft)
29.12.2013 20:56 3,3 C 1,7 C 94 % 1022,3 hPa 0,0 l/m 0 min 0 min 0,0 UV-I 0 W/m 0,0 km/h (0 Bft)
29.12.2013 20:58 3,3 C 1,7 C 94 % 1022,2 hPa 0,0 l/m 0 min 0 min 0,0 UV-I 0 W/m 10,3 km/h (2 Bft)
29.12.2013 21:00 3,3 C 1,7 C 94 % 1022,2 hPa 0,0 l/m 0 min 0 min 0,0 UV-I 0 W/m 0,0 km/h (0 Bft)
29.12.2013 21:02 3,3 C 1,7 C 94 % 1022,2 hPa 0,0 l/m 0 min 0 min 0,0 UV-I 0 W/m 5,1 km/h (1 Bft)
29.12.2013 21:04 3,3 C 1,7 C 94 % 1022,2 hPa 0,0 l/m 0 min 0 min 0,0 UV-I 0 W/m 0,0 km/h (0 Bft)
29.12.2013 21:06 3,3 C 1,7 C 94 % 1022,2 hPa 0,0 l/m 0 min 0 min 0,0 UV-I 0 W/m 0,0 km/h (0 Bft)
29.12.2013 21:08 3,3 C 1,7 C 94 % 1022,3 hPa 0,0 l/m 0 min 0 min 0,0 UV-I 0 W/m 0,0 km/h (0 Bft)
29.12.2013 21:10 3,3 C 1,7 C 94 % 1022,2 hPa 0,0 l/m 0 min 0 min 0,0 UV-I 0 W/m 0,0 km/h (0 Bft)
29.12.2013 21:12 3,3 C 1,7 C 94 % 1022,3 hPa 0,0 l/m 0 min 0 min 0,0 UV-I 0 W/m 10,3 km/h (2 Bft)
29.12.2013 21:14 3,3 C 1,7 C 94 % 1022,3 hPa 0,0 l/m 0 min 0 min 0,0 UV-I 0 W/m 0,0 km/h (0 Bft)
29.12.2013 21:16 3,3 C 1,7 C 94 % 1022,4 hPa 0,0 l/m 0 min 0 min 0,0 UV-I 0 W/m 7,7 km/h (2 Bft)
29.12.2013 21:18 3,3 C 1,7 C 94 % 1022,5 hPa 0,0 l/m 0 min 0 min 0,0 UV-I 0 W/m 5,1 km/h (1 Bft)
29.12.2013 21:20 3,3 C 1,7 C 94 % 1022,4 hPa 0,0 l/m 0 min 0 min 0,0 UV-I 0 W/m 0,0 km/h (0 Bft)
29.12.2013 21:22 3,3 C 1,7 C 94 % 1022,5 hPa 0,0 l/m 0 min 0 min 0,0 UV-I 0 W/m 2,6 km/h (1 Bft)
29.12.2013 21:24 3,3 C 1,7 C 94 % 1022,5 hPa 0,0 l/m 0 min 0 min 0,0 UV-I 0 W/m 0,0 km/h (0 Bft)
29.12.2013 21:26 3,2 C 1,7 C 94 % 1022,5 hPa 0,0 l/m 0 min 0 min 0,0 UV-I 0 W/m 5,1 km/h (1 Bft)
29.12.2013 21:28 3,2 C 1,7 C 94 % 1022,5 hPa 0,0 l/m 0 min 0 min 0,0 UV-I 0 W/m 0,0 km/h (0 Bft)
29.12.2013 21:30 3,2 C 1,7 C 94 % 1022,6 hPa 0,0 l/m 0 min 0 min 0,0 UV-I 0 W/m 0,0 km/h (0 Bft)
29.12.2013 21:32 3,2 C 1,7 C 94 % 1022,6 hPa 0,0 l/m 0 min 0 min 0,0 UV-I 0 W/m 0,0 km/h (0 Bft)
29.12.2013 21:34 3,2 C 1,7 C 94 % 1022,6 hPa 0,0 l/m 0 min 0 min 0,0 UV-I 0 W/m 0,0 km/h (0 Bft)
29.12.2013 21:36 3,2 C 1,7 C 94 % 1022,6 hPa 0,0 l/m 0 min 0 min 0,0 UV-I 0 W/m 0,0 km/h (0 Bft)
29.12.2013 21:38 3,2 C 1,7 C 94 % 1022,6 hPa 0,0 l/m 0 min 0 min 0,0 UV-I 0 W/m 0,0 km/h (0 Bft)
29.12.2013 21:40 3,2 C 1,7 C 94 % 1022,6 hPa 0,0 l/m 0 min 0 min 0,0 UV-I 0 W/m 0,0 km/h (0 Bft)
29.12.2013 21:42 3,2 C 1,7 C 94 % 1022,7 hPa 0,0 l/m 0 min 0 min 0,0 UV-I 0 W/m 0,0 km/h (0 Bft)
29.12.2013 21:44 3,2 C 1,7 C 94 % 1022,7 hPa 0,0 l/m 0 min 0 min 0,0 UV-I 0 W/m 0,0 km/h (0 Bft)
29.12.2013 21:46 3,2 C 1,7 C 94 % 1022,6 hPa 0,0 l/m 0 min 0 min 0,0 UV-I 0 W/m 0,0 km/h (0 Bft)
29.12.2013 21:48 3,2 C 1,7 C 94 % 1022,7 hPa 0,0 l/m 0 min 0 min 0,0 UV-I 0 W/m 0,0 km/h (0 Bft)
29.12.2013 21:50 3,2 C 1,7 C 94 % 1022,7 hPa 0,0 l/m 0 min 0 min 0,0 UV-I 0 W/m 10,3 km/h (2 Bft)
29.12.2013 21:52 3,2 C 1,7 C 94 % 1022,7 hPa 0,0 l/m 0 min 0 min 0,0 UV-I 0 W/m 7,7 km/h (2 Bft)
29.12.2013 21:54 3,2 C 1,7 C 94 % 1022,7 hPa 0,0 l/m 0 min 0 min 0,0 UV-I 0 W/m 5,1 km/h (1 Bft)
29.12.2013 21:56 3,2 C 1,7 C 94 % 1022,7 hPa 0,0 l/m 0 min 0 min 0,0 UV-I 0 W/m 10,3 km/h (2 Bft)
29.12.2013 21:58 3,2 C 1,7 C 94 % 1022,7 hPa 0,0 l/m 0 min 0 min 0,0 UV-I 0 W/m 5,1 km/h (1 Bft)
29.12.2013 22:00 3,2 C 1,7 C 94 % 1022,7 hPa 0,0 l/m 0 min 0 min 0,0 UV-I 0 W/m 0,0 km/h (0 Bft)
29.12.2013 22:02 3,2 C 1,7 C 94 % 1022,7 hPa 0,0 l/m 0 min 0 min 0,0 UV-I 0 W/m 10,3 km/h (2 Bft)
29.12.2013 22:04 3,2 C 1,7 C 94 % 1022,8 hPa 0,0 l/m 0 min 0 min 0,0 UV-I 0 W/m 7,7 km/h (2 Bft)
29.12.2013 22:06 3,2 C 1,7 C 94 % 1022,7 hPa 0,0 l/m 0 min 0 min 0,0 UV-I 0 W/m 0,0 km/h (0 Bft)
29.12.2013 22:08 3,2 C 1,7 C 94 % 1022,7 hPa 0,0 l/m 0 min 0 min 0,0 UV-I 0 W/m 2,6 km/h (1 Bft)
29.12.2013 22:10 3,2 C 1,7 C 94 % 1022,7 hPa 0,0 l/m 0 min 0 min 0,0 UV-I 0 W/m 2,6 km/h (1 Bft)
29.12.2013 22:12 3,1 C 1,7 C 94 % 1022,7 hPa 0,0 l/m 0 min 0 min 0,0 UV-I 0 W/m 0,0 km/h (0 Bft)
29.12.2013 22:14 3,1 C 1,7 C 94 % 1022,8 hPa 0,0 l/m 0 min 0 min 0,0 UV-I 0 W/m 0,0 km/h (0 Bft)
29.12.2013 22:16 3,1 C 1,7 C 94 % 1022,8 hPa 0,0 l/m 0 min 0 min 0,0 UV-I 0 W/m 7,7 km/h (2 Bft)
29.12.2013 22:18 3,1 C 1,7 C 94 % 1022,8 hPa 0,0 l/m 0 min 0 min 0,0 UV-I 0 W/m 5,1 km/h (1 Bft)
29.12.2013 22:20 3,1 C 1,7 C 94 % 1022,8 hPa 0,0 l/m 0 min 0 min 0,0 UV-I 0 W/m 10,3 km/h (2 Bft)
29.12.2013 22:22 3,1 C 1,7 C 94 % 1022,8 hPa 0,0 l/m 0 min 0 min 0,0 UV-I 0 W/m 12,9 km/h (3 Bft)
29.12.2013 22:24 3,1 C 1,7 C 94 % 1022,8 hPa 0,0 l/m 0 min 0 min 0,0 UV-I 0 W/m 0,0 km/h (0 Bft)
29.12.2013 22:26 3,1 C 1,7 C 94 % 1022,9 hPa 0,0 l/m 0 min 0 min 0,0 UV-I 0 W/m 0,0 km/h (0 Bft)
29.12.2013 22:28 3,1 C 1,7 C 94 % 1023,0 hPa 0,0 l/m 0 min 0 min 0,0 UV-I 0 W/m 10,3 km/h (2 Bft)
29.12.2013 22:30 3,1 C 1,7 C 94 % 1023,0 hPa 0,0 l/m 0 min 0 min 0,0 UV-I 0 W/m 12,9 km/h (3 Bft)
29.12.2013 22:32 3,1 C 1,7 C 94 % 1023,0 hPa 0,0 l/m 0 min 0 min 0,0 UV-I 0 W/m 0,0 km/h (0 Bft)
29.12.2013 22:34 3,1 C 1,7 C 94 % 1023,0 hPa 0,0 l/m 0 min 0 min 0,0 UV-I 0 W/m 2,6 km/h (1 Bft)
29.12.2013 22:36 3,1 C 1,7 C 94 % 1023,1 hPa 0,0 l/m 0 min 0 min 0,0 UV-I 0 W/m 7,7 km/h (2 Bft)
29.12.2013 22:38 3,1 C 1,7 C 94 % 1023,1 hPa 0,0 l/m 0 min 0 min 0,0 UV-I 0 W/m 0,0 km/h (0 Bft)
29.12.2013 22:40 3,1 C 1,7 C 94 % 1023,1 hPa 0,0 l/m 0 min 0 min 0,0 UV-I 0 W/m 10,3 km/h (2 Bft)
29.12.2013 22:42 3,1 C 1,7 C 94 % 1023,0 hPa 0,0 l/m 0 min 0 min 0,0 UV-I 0 W/m 7,7 km/h (2 Bft)
29.12.2013 22:44 3,1 C 1,7 C 94 % 1023,0 hPa 0,0 l/m 0 min 0 min 0,0 UV-I 0 W/m 0,0 km/h (0 Bft)
29.12.2013 22:46 3,1 C 1,7 C 94 % 1023,1 hPa 0,0 l/m 0 min 0 min 0,0 UV-I 0 W/m 0,0 km/h (0 Bft)
29.12.2013 22:48 3,1 C 1,7 C 94 % 1023,1 hPa 0,0 l/m 0 min 0 min 0,0 UV-I 0 W/m 7,7 km/h (2 Bft)
29.12.2013 22:50 3,1 C 1,7 C 94 % 1023,1 hPa 0,0 l/m 0 min 0 min 0,0 UV-I 0 W/m 10,3 km/h (2 Bft)
29.12.2013 22:52 3,1 C 1,7 C 94 % 1023,1 hPa 0,0 l/m 0 min 0 min 0,0 UV-I 0 W/m 7,7 km/h (2 Bft)
29.12.2013 22:54 3,2 C 1,7 C 94 % 1023,1 hPa 0,0 l/m 0 min 0 min 0,0 UV-I 0 W/m 7,7 km/h (2 Bft)
29.12.2013 22:56 3,2 C 1,7 C 94 % 1023,1 hPa 0,0 l/m 0 min 0 min 0,0 UV-I 0 W/m 10,3 km/h (2 Bft)
29.12.2013 22:58 3,2 C 1,7 C 95 % 1023,1 hPa 0,0 l/m 0 min 0 min 0,0 UV-I 0 W/m 7,7 km/h (2 Bft)
29.12.2013 23:00 3,1 C 1,7 C 95 % 1023,0 hPa 0,0 l/m 0 min 0 min 0,0 UV-I 0 W/m 12,9 km/h (3 Bft)
29.12.2013 23:02 3,2 C 1,7 C 95 % 1023,1 hPa 0,0 l/m 0 min 0 min 0,0 UV-I 0 W/m 7,7 km/h (2 Bft)
29.12.2013 23:04 3,1 C 1,7 C 95 % 1023,1 hPa 0,0 l/m 0 min 0 min 0,0 UV-I 0 W/m 5,1 km/h (1 Bft)
29.12.2013 23:06 3,1 C 1,7 C 95 % 1023,2 hPa 0,0 l/m 0 min 0 min 0,0 UV-I 0 W/m 5,1 km/h (1 Bft)
29.12.2013 23:08 3,2 C 1,7 C 95 % 1023,2 hPa 0,0 l/m 0 min 0 min 0,0 UV-I 0 W/m 0,0 km/h (0 Bft)
29.12.2013 23:10 3,1 C 1,7 C 94 % 1023,2 hPa 0,0 l/m 0 min 0 min 0,0 UV-I 0 W/m 0,0 km/h (0 Bft)
29.12.2013 23:12 3,1 C 1,7 C 94 % 1023,2 hPa 0,0 l/m 0 min 0 min 0,0 UV-I 0 W/m 0,0 km/h (0 Bft)
29.12.2013 23:14 3,1 C 1,7 C 94 % 1023,2 hPa 0,0 l/m 0 min 0 min 0,0 UV-I 0 W/m 0,0 km/h (0 Bft)
29.12.2013 23:16 3,1 C 1,1 C 94 % 1023,3 hPa 0,0 l/m 0 min 0 min 0,0 UV-I 0 W/m 0,0 km/h (0 Bft)
29.12.2013 23:18 3,1 C 1,1 C 94 % 1023,2 hPa 0,0 l/m 0 min 0 min 0,0 UV-I 0 W/m 2,6 km/h (1 Bft)
29.12.2013 23:20 3,1 C 1,1 C 94 % 1023,2 hPa 0,0 l/m 0 min 0 min 0,0 UV-I 0 W/m 2,6 km/h (1 Bft)
29.12.2013 23:22 3,1 C 1,1 C 94 % 1023,3 hPa 0,0 l/m 0 min 0 min 0,0 UV-I 0 W/m 0,0 km/h (0 Bft)
29.12.2013 23:24 3,1 C 1,7 C 94 % 1023,4 hPa 0,0 l/m 0 min 0 min 0,0 UV-I 0 W/m 2,6 km/h (1 Bft)
29.12.2013 23:26 3,1 C 1,1 C 94 % 1023,4 hPa 0,0 l/m 0 min 0 min 0,0 UV-I 0 W/m 0,0 km/h (0 Bft)
29.12.2013 23:28 3,0 C 1,1 C 94 % 1023,3 hPa 0,0 l/m 0 min 0 min 0,0 UV-I 0 W/m 0,0 km/h (0 Bft)
29.12.2013 23:30 3,0 C 1,1 C 94 % 1023,3 hPa 0,0 l/m 0 min 0 min 0,0 UV-I 0 W/m 0,0 km/h (0 Bft)
29.12.2013 23:32 3,0 C 1,1 C 94 % 1023,4 hPa 0,0 l/m 0 min 0 min 0,0 UV-I 0 W/m 0,0 km/h (0 Bft)
29.12.2013 23:34 3,0 C 1,1 C 94 % 1023,4 hPa 0,0 l/m 0 min 0 min 0,0 UV-I 0 W/m 2,6 km/h (1 Bft)
29.12.2013 23:36 2,9 C 1,1 C 94 % 1023,4 hPa 0,0 l/m 0 min 0 min 0,0 UV-I 0 W/m 0,0 km/h (0 Bft)
29.12.2013 23:38 2,9 C 1,1 C 94 % 1023,4 hPa 0,0 l/m 0 min 0 min 0,0 UV-I 0 W/m 0,0 km/h (0 Bft)
29.12.2013 23:40 2,9 C 1,1 C 95 % 1023,4 hPa 0,0 l/m 0 min 0 min 0,0 UV-I 0 W/m 0,0 km/h (0 Bft)
29.12.2013 23:42 2,9 C 1,1 C 95 % 1023,4 hPa 0,0 l/m 0 min 0 min 0,0 UV-I 0 W/m 0,0 km/h (0 Bft)
29.12.2013 23:44 2,9 C 1,1 C 95 % 1023,4 hPa 0,0 l/m 0 min 0 min 0,0 UV-I 0 W/m 0,0 km/h (0 Bft)
29.12.2013 23:46 2,9 C 1,1 C 95 % 1023,4 hPa 0,0 l/m 0 min 0 min 0,0 UV-I 0 W/m 0,0 km/h (0 Bft)
29.12.2013 23:48 2,8 C 1,1 C 95 % 1023,4 hPa 0,0 l/m 0 min 0 min 0,0 UV-I 0 W/m 5,1 km/h (1 Bft)
29.12.2013 23:50 2,8 C 1,1 C 95 % 1023,4 hPa 0,0 l/m 0 min 0 min 0,0 UV-I 0 W/m 7,7 km/h (2 Bft)
29.12.2013 23:52 2,8 C 1,1 C 95 % 1023,5 hPa 0,0 l/m 0 min 0 min 0,0 UV-I 0 W/m 0,0 km/h (0 Bft)
29.12.2013 23:54 2,8 C 1,1 C 95 % 1023,5 hPa 0,0 l/m 0 min 0 min 0,0 UV-I 0 W/m 2,6 km/h (1 Bft)
29.12.2013 23:56 2,8 C 1,1 C 94 % 1023,5 hPa 0,0 l/m 0 min 0 min 0,0 UV-I 0 W/m 0,0 km/h (0 Bft)
29.12.2013 23:58 2,7 C 1,1 C 94 % 1023,6 hPa 0,0 l/m 0 min 0 min 0,0 UV-I 0 W/m 5,1 km/h (1 Bft)
_ Min-Zeit 23:56 23:16 14:48 00:00 - - - - - 00:00
Minimum _ 2,7 C 1,1 C 87 % 1005,8 hPa - - - - - 0,0 km/h (0 Bft)
_ Max-Zeit 14:24 00:00 00:00 23:58 05:52 10:26 04:08 00:00 11:40 03:20
Maximum _ 6,6 C 5,0 C 96 % 1023,6 hPa 0,2 l/m 2 min 2 min 0,0 UV-I 265 W/m 30,9 km/h
SW (5 Bft)
Durchschnitt _ 5,1 C 3,5 C 92 % 1014,8 hPa #1,2 l/m #1:58 h #2:02 h 0,0 UV-I 78 W/m 6,9 km/h (2 Bft)
© 2013 W. Hausmann